Time,TemperatureF,DewpointF,PressureIn,WindDirection,WindDirectionDegrees,WindSpeedMPH,WindSpeedGustMPH,Humidity,HourlyPrecipIn,Conditions,Clouds,dailyrainin,SoftwareType,DateUTC
2013-05-20 00:02:00,69.5,49.5,29.65,SSE,165,4.9,9.2,49,0.00,RA,,0.00,WeatherDisplay:10.37,2013-05-20 05:02:00,
2013-05-20 00:03:00,69.5,49.5,29.65,South,178,4.3,8.1,49,0.00,RA,,0.00,WeatherDisplay:10.37,2013-05-20 05:03:00,
2013-05-20 00:07:00,69.5,48.9,29.65,South,188,6.1,9.2,48,0.00,RA,,0.00,WeatherDisplay:10.37,2013-05-20 05:07:00,
2013-05-20 00:08:00,69.5,48.9,29.65,South,188,6.1,9.2,48,0.00,RA,,0.00,WeatherDisplay:10.37,2013-05-20 05:08:00,
2013-05-20 00:09:00,69.5,49.5,29.65,SSW,206,6.7,21.9,49,0.00,RA,,0.00,WeatherDisplay:10.37,2013-05-20 05:09:00,
2013-05-20 00:13:00,69.5,49.5,29.66,SSE,147,6.3,10.4,49,0.00,CLR,,0.00,WeatherDisplay:10.37,2013-05-20 05:13:00,
2013-05-20 00:14:00,69.4,49.4,29.66,SSW,192,4.9,8.1,49,0.00,CLR,,0.00,WeatherDisplay:10.37,2013-05-20 05:14:00,
2013-05-20 00:18:00,69.3,49.9,29.67,SSW,199,7.4,13.8,50,0.00,CLR,,0.00,WeatherDisplay:10.37,2013-05-20 05:18:00,
2013-05-20 00:19:00,69.2,49.8,29.67,South,172,8.1,15.0,50,0.00,CLR,,0.00,WeatherDisplay:10.37,2013-05-20 05:19:00,
2013-05-20 00:23:00,69.0,50.1,29.67,WSW,240,7.3,11.5,51,0.00,CLR,,0.00,WeatherDisplay:10.37,2013-05-20 05:23:00,
2013-05-20 00:24:00,69.1,50.2,29.67,WSW,248,9.2,13.8,51,0.00,CLR,,0.00,WeatherDisplay:10.37,2013-05-20 05:24:00,
2013-05-20 00:25:00,68.9,50.0,29.68,SSW,193,6.3,13.8,51,0.00,CLR,,0.00,WeatherDisplay:10.37,2013-05-20 05:25:00,
2013-05-20 00:28:00,68.7,50.4,29.68,SW,234,5.1,6.9,52,0.00,CLR,,0.00,WeatherDisplay:10.37,2013-05-20 05:28:00,
2013-05-20 00:29:00,68.8,50.5,29.68,South,171,4.5,8.1,52,0.00,CLR,,0.00,WeatherDisplay:10.37,2013-05-20 05:29:00,
2013-05-20 00:30:00,68.7,50.4,29.67,SW,216,4.3,6.9,52,0.00,CLR,,0.00,WeatherDisplay:10.37,2013-05-20 05:30:00,
2013-05-20 00:33:00,68.5,50.2,29.67,SSW,193,5.3,8.1,52,0.00,CLR,,0.00,WeatherDisplay:10.37,2013-05-20 05:33:00,
2013-05-20 00:34:00,68.5,50.7,29.67,South,189,4.5,6.9,53,0.00,CLR,,0.00,WeatherDisplay:10.37,2013-05-20 05:34:00,
2013-05-20 00:35:00,68.4,50.6,29.67,SW,215,7.3,12.7,53,0.00,CLR,,0.00,WeatherDisplay:10.37,2013-05-20 05:35:00,
2013-05-20 00:38:00,68.3,50.5,29.67,WSW,239,4.8,8.1,53,0.00,CLR,,0.00,WeatherDisplay:10.37,2013-05-20 05:38:00,
2013-05-20 00:39:00,68.3,50.5,29.67,SW,226,4.9,8.1,53,0.00,CLR,,0.00,WeatherDisplay:10.37,2013-05-20 05:39:00,
2013-05-20 00:40:00,68.2,50.4,29.67,SW,224,5.0,9.7,53,0.00,CLR,,0.00,WeatherDisplay:10.37,2013-05-20 05:40:00,
2013-05-20 00:43:00,68.1,50.8,29.67,SW,224,7.4,12.7,54,0.00,CLR,,0.00,WeatherDisplay:10.37,2013-05-20 05:43:00,
2013-05-20 00:44:00,68.1,50.8,29.67,South,184,7.5,12.7,54,0.00,CLR,,0.00,WeatherDisplay:10.37,2013-05-20 05:44:00,
2013-05-20 00:45:00,67.9,50.6,29.67,SSW,195,6.3,10.4,54,0.00,CLR,,0.00,WeatherDisplay:10.37,2013-05-20 05:45:00,
2013-05-20 00:46:00,68.0,50.7,29.67,WSW,258,5.7,10.4,54,0.00,CLR,,0.00,WeatherDisplay:10.37,2013-05-20 05:46:00,
2013-05-20 00:49:00,68.0,50.7,29.68,WSW,239,5.7,8.8,54,0.00,CLR,,0.00,WeatherDisplay:10.37,2013-05-20 05:49:00,
2013-05-20 00:50:00,67.9,50.6,29.68,South,188,5.4,11.5,54,0.00,CLR,,0.00,WeatherDisplay:10.37,2013-05-20 05:50:00,
2013-05-20 00:51:00,67.8,50.5,29.68,SW,216,4.9,10.4,54,0.00,CLR,,0.00,WeatherDisplay:10.37,2013-05-20 05:51:00,
2013-05-20 00:54:00,67.9,50.6,29.69,South,172,6.9,11.5,54,0.00,CLR,,0.00,WeatherDisplay:10.37,2013-05-20 05:54:00,
2013-05-20 00:55:00,67.9,50.6,29.69,WSW,246,5.5,11.5,54,0.00,CLR,,0.00,WeatherDisplay:10.37,2013-05-20 05:55:00,
2013-05-20 00:56:00,67.9,50.6,29.69,WSW,254,6.5,9.2,54,0.00,CLR,,0.00,WeatherDisplay:10.37,2013-05-20 05:56:00,
2013-05-20 00:59:00,67.8,50.5,29.69,SSE,147,7.7,10.4,54,0.00,CLR,,0.00,WeatherDisplay:10.37,2013-05-20 05:59:00,
2013-05-20 01:00:00,68.0,50.7,29.69,WSW,246,4.8,9.2,54,0.00,CLR,,0.00,WeatherDisplay:10.37,2013-05-20 06:00:00,
2013-05-20 01:01:00,67.8,50.5,29.69,SSW,202,4.9,7.3,54,0.00,CLR,,0.00,WeatherDisplay:10.37,2013-05-20 06:01:00,
2013-05-20 01:04:00,67.9,51.1,29.69,SSW,213,5.4,12.7,55,0.00,CLR,,0.00,WeatherDisplay:10.37,2013-05-20 06:04:00,
2013-05-20 01:05:00,67.9,51.1,29.69,SSW,213,5.4,12.7,55,0.00,CLR,,0.00,WeatherDisplay:10.37,2013-05-20 06:05:00,
2013-05-20 01:06:00,68.0,51.2,29.69,SW,215,8.3,11.6,55,0.00,CLR,,0.00,WeatherDisplay:10.37,2013-05-20 06:06:00,
2013-05-20 01:10:00,68.0,51.7,29.71,South,185,8.0,11.5,56,0.00,CLR,,0.00,WeatherDisplay:10.37,2013-05-20 06:10:00,
2013-05-20 01:11:00,68.1,51.8,29.71,SSW,202,9.3,16.1,56,0.00,CLR,,0.00,WeatherDisplay:10.37,2013-05-20 06:11:00,
2013-05-20 01:15:00,67.8,55.6,29.72,SSW,206,10.5,17.3,65,0.07,RA,,0.07,WeatherDisplay:10.37,2013-05-20 06:15:00,
2013-05-20 01:16:00,67.5,55.3,29.72,WSW,251,7.1,12.7,65,0.07,RA,,0.07,WeatherDisplay:10.37,2013-05-20 06:16:00,
2013-05-20 01:20:00,66.8,55.9,29.72,SSW,200,7.3,12.7,68,0.08,RA,,0.08,WeatherDisplay:10.37,2013-05-20 06:20:00,
2013-05-20 01:21:00,66.5,55.6,29.72,SW,223,5.0,9.2,68,0.08,RA,,0.08,WeatherDisplay:10.37,2013-05-20 06:21:00,
2013-05-20 01:25:00,65.9,55.8,29.72,WNW,287,6.3,9.2,70,0.09,RA,,0.09,WeatherDisplay:10.37,2013-05-20 06:25:00,
2013-05-20 01:26:00,65.8,55.7,29.73,West,261,5.6,8.5,70,0.09,RA,,0.09,WeatherDisplay:10.37,2013-05-20 06:26:00,
2013-05-20 01:27:00,65.6,55.5,29.73,West,280,8.1,15.0,70,0.09,RA,,0.09,WeatherDisplay:10.37,2013-05-20 06:27:00,
2013-05-20 01:30:00,65.3,56.0,29.77,WNW,284,8.4,18.4,72,0.09,RA,,0.09,WeatherDisplay:10.37,2013-05-20 06:30:00,
2013-05-20 01:31:00,65.1,55.8,29.77,WSW,248,9.6,21.9,72,0.09,RA,,0.09,WeatherDisplay:10.37,2013-05-20 06:31:00,
2013-05-20 01:32:00,65.0,55.8,29.77,WNW,301,8.5,15.0,72,0.09,RA,,0.09,WeatherDisplay:10.37,2013-05-20 06:32:00,
2013-05-20 01:35:00,64.3,55.5,29.80,SW,220,9.4,15.0,73,0.12,RA,,0.13,WeatherDisplay:10.37,2013-05-20 06:35:00,
2013-05-20 01:36:00,64.2,55.7,29.80,WSW,239,9.9,18.4,74,0.13,RA,,0.13,WeatherDisplay:10.37,2013-05-20 06:36:00,
2013-05-20 01:37:00,63.8,55.4,29.80,SSW,210,10.7,16.9,74,0.15,RA,,0.17,WeatherDisplay:10.37,2013-05-20 06:37:00,
2013-05-20 01:40:00,63.1,55.4,29.79,SW,216,8.4,16.1,76,0.25,RA,,0.26,WeatherDisplay:10.37,2013-05-20 06:40:00,
2013-05-20 01:41:00,63.0,55.3,29.79,WSW,248,6.3,10.4,76,0.28,RA,,0.28,WeatherDisplay:10.37,2013-05-20 06:41:00,
2013-05-20 01:42:00,62.6,55.3,29.79,WSW,258,5.3,8.0,77,0.31,RA,,0.32,WeatherDisplay:10.37,2013-05-20 06:42:00,
2013-05-20 01:45:00,62.3,55.4,29.79,WSW,253,4.8,8.1,78,0.38,RA,,0.38,WeatherDisplay:10.37,2013-05-20 06:45:00,
2013-05-20 01:46:00,62.1,55.2,29.79,SSW,205,5.0,8.1,78,0.39,RA,,0.40,WeatherDisplay:10.37,2013-05-20 06:46:00,
2013-05-20 01:47:00,62.1,55.2,29.79,WNW,285,4.1,6.9,78,0.41,RA,,0.41,WeatherDisplay:10.37,2013-05-20 06:47:00,
2013-05-20 01:50:00,61.7,55.1,29.78,SW,234,4.2,6.9,79,0.45,RA,,0.46,WeatherDisplay:10.37,2013-05-20 06:50:00,
2013-05-20 01:51:00,61.8,55.2,29.78,WNW,295,1.9,4.6,79,0.46,RA,,0.46,WeatherDisplay:10.37,2013-05-20 06:51:00,
2013-05-20 01:52:00,61.5,54.9,29.78,SSW,202,1.8,3.5,79,0.47,RA,,0.47,WeatherDisplay:10.37,2013-05-20 06:52:00,
2013-05-20 01:53:00,61.6,55.4,29.77,WSW,257,1.0,2.3,80,0.48,RA,,0.48,WeatherDisplay:10.37,2013-05-20 06:53:00,
2013-05-20 01:55:00,61.6,55.4,29.76,NW,305,0.3,2.3,80,0.49,RA,,0.50,WeatherDisplay:10.37,2013-05-20 06:55:00,
2013-05-20 01:56:00,61.6,55.4,29.75,NW,305,0.0,0.0,80,0.50,RA,,0.50,WeatherDisplay:10.37,2013-05-20 06:56:00,
2013-05-20 01:57:00,61.5,55.3,29.75,NW,305,0.0,0.0,80,0.51,RA,,0.51,WeatherDisplay:10.37,2013-05-20 06:57:00,
2013-05-20 01:58:00,61.6,55.4,29.75,NW,305,0.0,0.0,80,0.51,RA,,0.51,WeatherDisplay:10.37,2013-05-20 06:58:00,
2013-05-20 02:00:00,61.5,55.3,29.76,South,186,0.3,0.9,80,0.52,RA,,0.52,WeatherDisplay:10.37,2013-05-20 07:00:00,
2013-05-20 02:01:00,61.5,55.3,29.76,SSW,209,0.0,1.1,80,0.53,RA,,0.53,WeatherDisplay:10.37,2013-05-20 07:01:00,
2013-05-20 02:02:00,61.5,55.3,29.76,SSW,209,0.0,0.0,80,0.53,RA,,0.53,WeatherDisplay:10.37,2013-05-20 07:02:00,
2013-05-20 02:03:00,61.6,55.4,29.75,SW,217,0.8,1.9,80,0.53,RA,,0.53,WeatherDisplay:10.37,2013-05-20 07:03:00,
2013-05-20 02:06:00,61.5,55.3,29.74,SW,220,1.6,2.3,80,0.54,RA,,0.54,WeatherDisplay:10.37,2013-05-20 07:06:00,
2013-05-20 02:07:00,61.5,55.3,29.73,SW,220,1.2,2.3,80,0.55,RA,,0.55,WeatherDisplay:10.37,2013-05-20 07:07:00,
2013-05-20 02:08:00,61.5,55.3,29.73,South,185,1.3,2.3,80,0.55,RA,,0.55,WeatherDisplay:10.37,2013-05-20 07:08:00,
2013-05-20 02:11:00,61.5,55.3,29.73,SSW,210,2.3,3.4,80,0.55,RA,,0.55,WeatherDisplay:10.37,2013-05-20 07:11:00,
2013-05-20 02:12:00,61.6,55.4,29.73,SSW,213,2.5,3.5,80,0.55,RA,,0.55,WeatherDisplay:10.37,2013-05-20 07:12:00,
2013-05-20 02:14:00,61.4,55.2,29.72,SSW,198,2.2,3.5,80,0.49,RA,,0.56,WeatherDisplay:10.37,2013-05-20 07:14:00,
2013-05-20 02:17:00,61.5,55.3,29.72,SSE,164,1.8,2.3,80,0.49,RA,,0.56,WeatherDisplay:10.37,2013-05-20 07:17:00,
2013-05-20 02:19:00,61.3,55.4,29.72,SSE,167,2.5,4.6,81,0.48,RA,,0.56,WeatherDisplay:10.37,2013-05-20 07:19:00,
2013-05-20 02:22:00,61.4,55.5,29.73,South,175,4.4,6.9,81,0.48,RA,,0.56,WeatherDisplay:10.37,2013-05-20 07:22:00,
2013-05-20 02:24:00,61.3,55.4,29.72,ESE,113,1.7,3.5,81,0.47,,,0.56,WeatherDisplay:10.37,2013-05-20 07:24:00,
2013-05-20 02:27:00,61.3,55.4,29.71,East,97,1.7,3.9,81,0.47,CLR,,0.56,WeatherDisplay:10.37,2013-05-20 07:27:00,
2013-05-20 02:29:00,61.2,55.3,29.70,East,99,2.7,3.5,81,0.47,CLR,,0.56,WeatherDisplay:10.37,2013-05-20 07:29:00,
2013-05-20 02:30:00,61.2,55.3,29.70,East,92,2.7,3.5,81,0.47,CLR,,0.56,WeatherDisplay:10.37,2013-05-20 07:30:00,
2013-05-20 02:32:00,61.3,55.4,29.70,ESE,114,1.2,3.5,81,0.47,CLR,,0.56,WeatherDisplay:10.37,2013-05-20 07:32:00,
2013-05-20 02:35:00,61.1,55.2,29.70,ESE,120,0.2,1.1,81,0.44,CLR,,0.56,WeatherDisplay:10.37,2013-05-20 07:35:00,
2013-05-20 02:36:00,61.2,55.3,29.70,ESE,106,0.5,2.7,81,0.43,CLR,,0.56,WeatherDisplay:10.37,2013-05-20 07:36:00,
2013-05-20 02:37:00,61.2,55.3,29.70,SSE,155,2.3,3.5,81,0.41,CLR,,0.56,WeatherDisplay:10.37,2013-05-20 07:37:00,
2013-05-20 02:38:00,61.1,55.2,29.70,SSE,161,2.2,2.3,81,0.38,CLR,,0.56,WeatherDisplay:10.37,2013-05-20 07:38:00,
2013-05-20 02:40:00,61.1,55.2,29.70,SSE,157,2.8,4.6,81,0.31,CLR,,0.56,WeatherDisplay:10.37,2013-05-20 07:40:00,
2013-05-20 02:41:00,61.1,55.2,29.70,SSE,158,4.6,6.9,81,0.28,CLR,,0.56,WeatherDisplay:10.37,2013-05-20 07:41:00,
2013-05-20 02:43:00,61.1,55.2,29.70,ESE,113,2.1,3.5,81,0.22,CLR,,0.56,WeatherDisplay:10.37,2013-05-20 07:43:00,
2013-05-20 02:45:00,61.1,55.2,29.69,SE,145,3.0,4.6,81,0.18,CLR,,0.56,WeatherDisplay:10.37,2013-05-20 07:45:00,
2013-05-20 02:46:00,61.0,55.1,29.69,South,191,2.7,3.5,81,0.17,CLR,,0.56,WeatherDisplay:10.37,2013-05-20 07:46:00,
2013-05-20 02:48:00,61.0,55.1,29.69,SE,127,1.4,4.0,81,0.13,CLR,,0.56,WeatherDisplay:10.37,2013-05-20 07:48:00,
2013-05-20 02:50:00,61.1,55.6,29.69,ESE,116,0.6,2.3,82,0.11,CLR,,0.56,WeatherDisplay:10.37,2013-05-20 07:50:00,
2013-05-20 02:51:00,60.9,55.4,29.69,SSE,147,1.0,2.3,82,0.10,CLR,,0.56,WeatherDisplay:10.37,2013-05-20 07:51:00,
2013-05-20 02:53:00,60.9,55.4,29.69,SE,144,1.1,2.3,82,0.08,CLR,,0.56,WeatherDisplay:10.37,2013-05-20 07:53:00,
2013-05-20 02:54:00,60.9,55.4,29.69,ENE,68,1.5,3.5,82,0.07,CLR,,0.56,WeatherDisplay:10.37,2013-05-20 07:54:00,
2013-05-20 02:55:00,61.1,55.6,29.69,ESE,114,0.2,2.3,82,0.07,CLR,,0.56,WeatherDisplay:10.37,2013-05-20 07:55:00,
2013-05-20 02:56:00,60.8,55.3,29.69,ESE,114,0.0,1.1,82,0.06,CLR,,0.56,WeatherDisplay:10.37,2013-05-20 07:56:00,
2013-05-20 02:58:00,60.8,55.3,29.69,ESE,107,1.7,3.5,82,0.05,CLR,,0.56,WeatherDisplay:10.37,2013-05-20 07:58:00,
2013-05-20 02:59:00,61.0,55.5,29.69,ESE,106,0.2,2.3,82,0.04,CLR,,0.56,WeatherDisplay:10.37,2013-05-20 07:59:00,
2013-05-20 03:01:00,60.8,55.3,29.69,ESE,106,0.0,0.0,82,0.03,CLR,,0.56,WeatherDisplay:10.37,2013-05-20 08:01:00,
2013-05-20 03:03:00,60.9,55.4,29.69,ESE,106,0.0,0.0,82,0.03,CLR,,0.56,WeatherDisplay:10.37,2013-05-20 08:03:00,
2013-05-20 03:05:00,60.8,55.3,29.69,ESE,106,0.0,0.0,82,0.02,CLR,,0.56,WeatherDisplay:10.37,2013-05-20 08:05:00,
2013-05-20 03:06:00,60.8,55.3,29.69,ESE,106,0.0,0.0,82,0.02,CLR,,0.56,WeatherDisplay:10.37,2013-05-20 08:06:00,
2013-05-20 03:08:00,60.9,55.4,29.69,ESE,104,2.5,2.5,82,0.01,CLR,,0.56,WeatherDisplay:10.37,2013-05-20 08:08:00,
2013-05-20 03:10:00,60.9,55.4,29.69,SE,143,1.7,2.3,82,0.01,CLR,,0.56,WeatherDisplay:10.37,2013-05-20 08:10:00,
2013-05-20 03:11:00,60.9,55.4,29.69,SSE,160,2.6,3.5,82,0.01,CLR,,0.56,WeatherDisplay:10.37,2013-05-20 08:11:00,
2013-05-20 03:12:00,60.9,55.4,29.68,ESE,110,2.2,3.5,82,0.01,CLR,,0.56,WeatherDisplay:10.37,2013-05-20 08:12:00,
2013-05-20 03:13:00,60.8,55.3,29.68,ESE,119,2.0,3.5,82,0.01,CLR,,0.56,WeatherDisplay:10.37,2013-05-20 08:13:00,
2013-05-20 03:15:00,60.9,55.4,29.68,SSW,209,1.3,5.8,82,0.00,CLR,,0.56,WeatherDisplay:10.37,2013-05-20 08:15:00,
2013-05-20 03:16:00,60.9,55.4,29.68,SSE,151,0.3,2.3,82,0.00,CLR,,0.56,WeatherDisplay:10.37,2013-05-20 08:16:00,
2013-05-20 03:17:00,60.9,55.4,29.68,South,169,0.5,2.3,82,0.00,CLR,,0.56,WeatherDisplay:10.37,2013-05-20 08:17:00,
2013-05-20 03:18:00,60.9,55.4,29.68,SSE,147,0.6,2.3,82,0.00,CLR,,0.56,WeatherDisplay:10.37,2013-05-20 08:18:00,
2013-05-20 03:20:00,60.8,55.3,29.69,ESE,102,1.6,3.5,82,0.00,CLR,,0.56,WeatherDisplay:10.37,2013-05-20 08:20:00,
2013-05-20 03:22:00,60.8,55.3,29.68,SE,126,2.1,2.3,82,0.00,CLR,,0.56,WeatherDisplay:10.37,2013-05-20 08:22:00,
2013-05-20 03:23:00,60.8,55.3,29.68,ESE,114,0.4,2.3,82,0.00,CLR,,0.56,WeatherDisplay:10.37,2013-05-20 08:23:00,
2013-05-20 03:24:00,60.9,55.4,29.68,NE,45,0.5,1.1,82,0.00,CLR,,0.56,WeatherDisplay:10.37,2013-05-20 08:24:00,
2013-05-20 03:25:00,60.8,55.3,29.69,ESE,107,1.1,2.7,82,0.00,CLR,,0.56,WeatherDisplay:10.37,2013-05-20 08:25:00,
2013-05-20 03:27:00,60.8,55.3,29.69,SE,127,1.1,2.3,82,0.00,CLR,,0.56,WeatherDisplay:10.37,2013-05-20 08:27:00,
2013-05-20 03:28:00,60.9,55.4,29.69,East,97,1.5,2.3,82,0.00,CLR,,0.56,WeatherDisplay:10.37,2013-05-20 08:28:00,
2013-05-20 03:29:00,60.8,55.3,29.69,East,96,0.0,1.1,82,0.00,CLR,,0.56,WeatherDisplay:10.37,2013-05-20 08:29:00,
2013-05-20 03:30:00,60.8,55.3,29.69,ESE,112,0.0,0.2,82,0.00,CLR,,0.56,WeatherDisplay:10.37,2013-05-20 08:30:00,
2013-05-20 03:32:00,60.8,55.3,29.69,ESE,112,0.0,0.0,82,0.00,CLR,,0.56,WeatherDisplay:10.37,2013-05-20 08:32:00,
2013-05-20 03:33:00,60.7,55.2,29.69,WSW,248,0.8,1.1,82,0.00,CLR,,0.56,WeatherDisplay:10.37,2013-05-20 08:33:00,
2013-05-20 03:34:00,60.7,55.2,29.69,SW,215,0.2,2.3,82,0.00,CLR,,0.56,WeatherDisplay:10.37,2013-05-20 08:34:00,
2013-05-20 03:35:00,60.7,55.2,29.69,SW,224,0.7,1.2,82,0.00,CLR,,0.56,WeatherDisplay:10.37,2013-05-20 08:35:00,
2013-05-20 03:37:00,60.6,55.1,29.69,ESE,106,0.4,3.5,82,0.00,CLR,,0.56,WeatherDisplay:10.37,2013-05-20 08:37:00,
2013-05-20 03:38:00,60.6,55.1,29.69,ESE,106,0.0,0.0,82,0.00,CLR,,0.56,WeatherDisplay:10.37,2013-05-20 08:38:00,
2013-05-20 03:40:00,60.7,55.2,29.69,ESE,106,0.0,0.0,82,0.00,CLR,,0.56,WeatherDisplay:10.37,2013-05-20 08:40:00,
2013-05-20 03:42:00,60.6,55.1,29.69,SSE,148,0.4,2.3,82,0.00,CLR,,0.56,WeatherDisplay:10.37,2013-05-20 08:42:00,
2013-05-20 03:43:00,60.5,55.0,29.69,SSE,154,1.9,2.5,82,0.00,CLR,,0.56,WeatherDisplay:10.37,2013-05-20 08:43:00,
2013-05-20 03:44:00,60.5,55.0,29.69,SE,141,2.3,2.3,82,0.00,CLR,,0.56,WeatherDisplay:10.37,2013-05-20 08:44:00,
2013-05-20 03:45:00,60.5,55.0,29.69,ESE,110,1.4,2.3,82,0.00,CLR,,0.56,WeatherDisplay:10.37,2013-05-20 08:45:00,
2013-05-20 03:47:00,60.4,54.9,29.70,SSE,148,0.0,2.3,82,0.00,CLR,,0.56,WeatherDisplay:10.37,2013-05-20 08:47:00,
2013-05-20 03:48:00,60.4,54.9,29.69,SSE,148,0.0,0.0,82,0.00,CLR,,0.56,WeatherDisplay:10.37,2013-05-20 08:48:00,
2013-05-20 03:49:00,60.4,54.9,29.69,SSE,148,0.0,0.0,82,0.00,CLR,,0.56,WeatherDisplay:10.37,2013-05-20 08:49:00,
2013-05-20 03:50:00,60.3,54.8,29.69,SSE,148,0.0,0.0,82,0.00,CLR,,0.56,WeatherDisplay:10.37,2013-05-20 08:50:00,
2013-05-20 03:51:00,60.3,54.8,29.69,SSE,148,0.0,0.0,82,0.00,CLR,,0.56,WeatherDisplay:10.37,2013-05-20 08:51:00,
2013-05-20 03:52:00,60.2,54.7,29.69,SSE,160,1.7,3.1,82,0.00,CLR,,0.56,WeatherDisplay:10.37,2013-05-20 08:52:00,
2013-05-20 03:53:00,60.2,54.7,29.69,SSE,157,0.3,3.5,82,0.00,CLR,,0.56,WeatherDisplay:10.37,2013-05-20 08:53:00,
2013-05-20 03:54:00,60.2,54.7,29.68,SSE,157,0.0,1.1,82,0.00,CLR,,0.56,WeatherDisplay:10.37,2013-05-20 08:54:00,
2013-05-20 03:55:00,60.1,54.6,29.68,SSE,157,0.0,0.0,82,0.00,CLR,,0.56,WeatherDisplay:10.37,2013-05-20 08:55:00,
2013-05-20 03:56:00,60.1,54.6,29.68,SSE,161,0.6,3.7,82,0.00,CLR,,0.56,WeatherDisplay:10.37,2013-05-20 08:56:00,
2013-05-20 03:57:00,60.1,54.6,29.68,SSE,150,0.9,3.5,82,0.00,CLR,,0.56,WeatherDisplay:10.37,2013-05-20 08:57:00,
2013-05-20 03:58:00,60.0,54.5,29.68,ESE,104,1.3,2.3,82,0.00,CLR,,0.56,WeatherDisplay:10.37,2013-05-20 08:58:00,
2013-05-20 04:00:00,60.0,54.5,29.67,SSE,154,2.7,4.6,82,0.00,CLR,,0.56,WeatherDisplay:10.37,2013-05-20 09:00:00,
2013-05-20 04:01:00,60.0,54.5,29.67,SE,140,1.8,2.3,82,0.00,CLR,,0.56,WeatherDisplay:10.37,2013-05-20 09:01:00,
2013-05-20 04:03:00,60.0,54.5,29.67,SE,137,2.0,5.8,82,0.00,CLR,,0.56,WeatherDisplay:10.37,2013-05-20 09:03:00,
2013-05-20 04:04:00,60.0,54.5,29.67,South,189,2.4,4.6,82,0.00,CLR,,0.56,WeatherDisplay:10.37,2013-05-20 09:04:00,
2013-05-20 04:05:00,60.0,54.5,29.67,SSE,161,3.2,5.8,82,0.00,CLR,,0.56,WeatherDisplay:10.37,2013-05-20 09:05:00,
2013-05-20 04:07:00,59.9,54.4,29.66,SSE,154,1.0,3.5,82,0.00,CLR,,0.56,WeatherDisplay:10.37,2013-05-20 09:07:00,
2013-05-20 04:08:00,59.9,54.4,29.67,SSE,147,2.7,4.5,82,0.00,CLR,,0.56,WeatherDisplay:10.37,2013-05-20 09:08:00,
2013-05-20 04:09:00,59.9,54.4,29.67,SSE,167,2.6,4.6,82,0.00,CLR,,0.56,WeatherDisplay:10.37,2013-05-20 09:09:00,
2013-05-20 04:10:00,59.9,54.4,29.67,SE,124,0.7,2.3,82,0.00,CLR,,0.56,WeatherDisplay:10.37,2013-05-20 09:10:00,
2013-05-20 04:11:00,59.9,54.4,29.67,SW,230,0.8,2.3,82,0.00,CLR,,0.56,WeatherDisplay:10.37,2013-05-20 09:11:00,
2013-05-20 04:12:00,59.9,54.4,29.68,SSE,148,0.1,2.3,82,0.00,CLR,,0.56,WeatherDisplay:10.37,2013-05-20 09:12:00,
2013-05-20 04:14:00,59.8,54.3,29.68,SE,136,0.7,1.2,82,0.00,CLR,,0.56,WeatherDisplay:10.37,2013-05-20 09:14:00,
2013-05-20 04:15:00,59.9,54.4,29.68,SE,136,0.7,2.3,82,0.00,CLR,,0.56,WeatherDisplay:10.37,2013-05-20 09:15:00,
2013-05-20 04:16:00,59.8,54.3,29.68,SE,136,0.0,0.0,82,0.00,CLR,,0.56,WeatherDisplay:10.37,2013-05-20 09:16:00,
2013-05-20 04:17:00,59.8,54.3,29.68,SSW,208,1.4,2.7,82,0.00,CLR,,0.56,WeatherDisplay:10.37,2013-05-20 09:17:00,
2013-05-20 04:19:00,59.8,54.3,29.69,South,189,1.9,4.6,82,0.00,CLR,,0.56,WeatherDisplay:10.37,2013-05-20 09:19:00,
2013-05-20 04:20:00,59.9,54.4,29.69,South,185,0.4,2.3,82,0.00,CLR,,0.56,WeatherDisplay:10.37,2013-05-20 09:20:00,
2013-05-20 04:21:00,59.8,54.6,29.69,South,181,0.4,2.3,83,0.00,CLR,,0.56,WeatherDisplay:10.37,2013-05-20 09:21:00,
2013-05-20 04:22:00,59.8,54.6,29.68,South,181,0.0,1.1,83,0.00,CLR,,0.56,WeatherDisplay:10.37,2013-05-20 09:22:00,
2013-05-20 04:25:00,59.8,54.6,29.68,South,181,1.1,2.3,83,0.00,CLR,,0.56,WeatherDisplay:10.37,2013-05-20 09:25:00,
2013-05-20 04:26:00,59.8,54.6,29.68,South,181,0.0,1.1,83,0.00,CLR,,0.56,WeatherDisplay:10.37,2013-05-20 09:26:00,
2013-05-20 04:27:00,59.8,54.6,29.68,SE,136,1.7,2.3,83,0.00,CLR,,0.56,WeatherDisplay:10.37,2013-05-20 09:27:00,
2013-05-20 04:30:00,59.8,54.6,29.68,SE,136,0.0,0.0,83,0.00,CLR,,0.56,WeatherDisplay:10.37,2013-05-20 09:30:00,
2013-05-20 04:31:00,59.8,54.6,29.68,SE,136,0.0,0.0,83,0.00,CLR,,0.56,WeatherDisplay:10.37,2013-05-20 09:31:00,
2013-05-20 04:33:00,59.8,54.6,29.67,SE,143,3.1,5.8,83,0.00,CLR,,0.56,WeatherDisplay:10.37,2013-05-20 09:33:00,
2013-05-20 04:35:00,59.7,54.5,29.67,SSE,151,4.1,6.9,83,0.00,CLR,,0.56,WeatherDisplay:10.37,2013-05-20 09:35:00,
2013-05-20 04:36:00,59.8,54.6,29.67,SE,127,1.6,5.1,83,0.00,CLR,,0.56,WeatherDisplay:10.37,2013-05-20 09:36:00,
2013-05-20 04:37:00,59.7,54.5,29.68,South,181,2.6,5.8,83,0.00,CLR,,0.56,WeatherDisplay:10.37,2013-05-20 09:37:00,
2013-05-20 04:38:00,59.8,54.6,29.68,South,178,0.4,1.1,83,0.00,CLR,,0.56,WeatherDisplay:10.37,2013-05-20 09:38:00,
2013-05-20 04:40:00,59.8,54.6,29.68,SSE,162,1.5,3.5,83,0.00,CLR,,0.56,WeatherDisplay:10.37,2013-05-20 09:40:00,
2013-05-20 04:41:00,59.7,54.5,29.68,SSW,196,0.5,3.5,83,0.00,CLR,,0.56,WeatherDisplay:10.37,2013-05-20 09:41:00,
2013-05-20 04:42:00,59.8,54.6,29.68,SSW,196,0.1,1.1,83,0.00,CLR,,0.56,WeatherDisplay:10.37,2013-05-20 09:42:00,
2013-05-20 04:43:00,59.8,54.6,29.68,SSW,196,0.0,0.0,83,0.00,CLR,,0.56,WeatherDisplay:10.37,2013-05-20 09:43:00,
2013-05-20 04:45:00,59.8,54.6,29.68,SSW,196,0.0,0.0,83,0.00,CLR,,0.56,WeatherDisplay:10.37,2013-05-20 09:45:00,
2013-05-20 04:46:00,59.7,54.5,29.68,SSW,212,0.2,3.7,83,0.00,CLR,,0.56,WeatherDisplay:10.37,2013-05-20 09:46:00,
2013-05-20 04:47:00,59.7,54.5,29.68,SE,136,0.9,4.6,83,0.00,CLR,,0.56,WeatherDisplay:10.37,2013-05-20 09:47:00,
2013-05-20 04:48:00,59.6,54.4,29.68,ESE,104,1.4,4.6,83,0.00,CLR,,0.56,WeatherDisplay:10.37,2013-05-20 09:48:00,
2013-05-20 04:50:00,59.6,54.4,29.67,SSE,161,1.1,2.3,83,0.00,CLR,,0.56,WeatherDisplay:10.37,2013-05-20 09:50:00,
2013-05-20 04:51:00,59.6,54.4,29.67,SSE,161,0.0,2.3,83,0.00,CLR,,0.56,WeatherDisplay:10.37,2013-05-20 09:51:00,
2013-05-20 04:52:00,59.7,54.5,29.67,SSE,161,0.0,0.0,83,0.00,CLR,,0.56,WeatherDisplay:10.37,2013-05-20 09:52:00,
2013-05-20 04:53:00,59.6,54.4,29.67,ESE,104,0.7,4.6,83,0.00,CLR,,0.56,WeatherDisplay:10.37,2013-05-20 09:53:00,
2013-05-20 04:56:00,59.7,54.5,29.66,South,179,1.9,3.5,83,0.00,CLR,,0.56,WeatherDisplay:10.37,2013-05-20 09:56:00,
2013-05-20 04:57:00,59.6,54.4,29.66,SSE,155,1.3,3.5,83,0.00,CLR,,0.56,WeatherDisplay:10.37,2013-05-20 09:57:00,
2013-05-20 04:58:00,59.6,54.4,29.66,SSE,152,4.1,5.2,83,0.00,CLR,,0.56,WeatherDisplay:10.37,2013-05-20 09:58:00,
2013-05-20 04:59:00,59.6,54.4,29.66,South,175,5.1,7.6,83,0.00,CLR,,0.56,WeatherDisplay:10.37,2013-05-20 09:59:00,
2013-05-20 05:01:00,59.6,54.4,29.65,SSE,165,3.3,10.7,83,0.00,CLR,,0.56,WeatherDisplay:10.37,2013-05-20 10:01:00,
2013-05-20 05:02:00,59.6,54.4,29.65,SSE,151,5.1,11.5,83,0.00,CLR,,0.56,WeatherDisplay:10.37,2013-05-20 10:02:00,
2013-05-20 05:03:00,59.6,54.4,29.65,SE,140,4.0,6.9,83,0.00,CLR,,0.56,WeatherDisplay:10.37,2013-05-20 10:03:00,
2013-05-20 05:04:00,59.6,54.4,29.65,SSE,154,3.6,8.1,83,0.00,CLR,,0.56,WeatherDisplay:10.37,2013-05-20 10:04:00,
2013-05-20 05:06:00,59.6,54.4,29.65,SSE,155,3.0,6.9,83,0.00,CLR,,0.56,WeatherDisplay:10.37,2013-05-20 10:06:00,
2013-05-20 05:07:00,59.6,54.4,29.65,SE,141,3.9,6.9,83,0.00,CLR,,0.56,WeatherDisplay:10.37,2013-05-20 10:07:00,
2013-05-20 05:08:00,59.7,54.5,29.65,South,175,4.1,6.9,83,0.00,CLR,,0.56,WeatherDisplay:10.37,2013-05-20 10:08:00,
2013-05-20 05:09:00,59.6,54.4,29.65,SE,128,4.2,9.2,83,0.00,CLR,,0.56,WeatherDisplay:10.37,2013-05-20 10:09:00,
2013-05-20 05:12:00,59.6,54.4,29.64,ESE,102,4.4,8.1,83,0.00,CLR,,0.56,WeatherDisplay:10.37,2013-05-20 10:12:00,
2013-05-20 05:13:00,59.5,54.3,29.64,SE,131,2.4,6.2,83,0.00,CLR,,0.56,WeatherDisplay:10.37,2013-05-20 10:13:00,
2013-05-20 05:14:00,59.6,54.4,29.64,South,172,5.0,9.2,83,0.00,CLR,,0.56,WeatherDisplay:10.37,2013-05-20 10:14:00,
2013-05-20 05:17:00,59.6,54.4,29.63,SSE,168,3.8,8.1,83,0.00,CLR,,0.56,WeatherDisplay:10.37,2013-05-20 10:17:00,
2013-05-20 05:18:00,59.5,54.3,29.63,East,88,3.5,6.9,83,0.00,CLR,,0.56,WeatherDisplay:10.37,2013-05-20 10:18:00,
2013-05-20 05:19:00,59.5,54.3,29.63,SSE,165,4.9,9.2,83,0.00,CLR,,0.56,WeatherDisplay:10.37,2013-05-20 10:19:00,
2013-05-20 05:22:00,59.5,54.3,29.63,SSE,161,5.1,9.2,83,0.00,CLR,,0.56,WeatherDisplay:10.37,2013-05-20 10:22:00,
2013-05-20 05:23:00,59.6,54.4,29.62,SSE,148,5.7,8.5,83,0.00,CLR,,0.56,WeatherDisplay:10.37,2013-05-20 10:23:00,
2013-05-20 05:24:00,59.6,54.4,29.62,SE,128,4.6,13.5,83,0.00,CLR,,0.56,WeatherDisplay:10.37,2013-05-20 10:24:00,
2013-05-20 05:28:00,59.6,54.8,29.62,SSE,167,5.2,10.4,84,0.00,CLR,,0.56,WeatherDisplay:10.37,2013-05-20 10:28:00,
2013-05-20 05:29:00,59.5,54.7,29.62,South,174,5.6,9.2,84,0.00,CLR,,0.56,WeatherDisplay:10.37,2013-05-20 10:29:00,
2013-05-20 05:33:00,59.6,54.8,29.62,South,169,3.1,9.2,84,0.00,CLR,,0.56,WeatherDisplay:10.37,2013-05-20 10:33:00,
2013-05-20 05:34:00,59.6,54.8,29.63,South,175,3.8,7.0,84,0.00,CLR,,0.56,WeatherDisplay:10.37,2013-05-20 10:34:00,
2013-05-20 05:35:00,59.7,54.9,29.63,South,174,5.3,8.1,84,0.00,CLR,,0.56,WeatherDisplay:10.37,2013-05-20 10:35:00,
2013-05-20 05:38:00,59.7,54.9,29.63,South,184,4.5,9.2,84,0.00,CLR,,0.56,WeatherDisplay:10.37,2013-05-20 10:38:00,
2013-05-20 05:39:00,59.7,54.9,29.63,South,172,2.7,6.9,84,0.00,CLR,,0.56,WeatherDisplay:10.37,2013-05-20 10:39:00,
2013-05-20 05:40:00,59.6,54.8,29.63,ESE,107,1.7,3.5,84,0.00,CLR,,0.56,WeatherDisplay:10.37,2013-05-20 10:40:00,
2013-05-20 05:44:00,59.7,54.9,29.64,SSW,205,2.2,4.7,84,0.00,CLR,,0.56,WeatherDisplay:10.37,2013-05-20 10:44:00,
2013-05-20 05:45:00,59.7,54.9,29.64,SE,136,3.2,4.6,84,0.00,CLR,,0.56,WeatherDisplay:10.37,2013-05-20 10:45:00,
2013-05-20 05:49:00,59.8,55.0,29.65,SSW,210,2.3,4.6,84,0.00,CLR,,0.56,WeatherDisplay:10.37,2013-05-20 10:49:00,
2013-05-20 05:50:00,59.7,54.9,29.65,SSE,165,3.0,5.8,84,0.00,CLR,,0.56,WeatherDisplay:10.37,2013-05-20 10:50:00,
2013-05-20 05:54:00,59.8,55.0,29.65,SSW,199,2.8,3.9,84,0.00,CLR,,0.56,WeatherDisplay:10.37,2013-05-20 10:54:00,
2013-05-20 05:55:00,59.7,54.9,29.65,SSW,206,2.7,4.6,84,0.00,CLR,,0.56,WeatherDisplay:10.37,2013-05-20 10:55:00,
2013-05-20 05:56:00,59.8,55.0,29.65,South,181,1.0,3.5,84,0.00,CLR,,0.56,WeatherDisplay:10.37,2013-05-20 10:56:00,
2013-05-20 05:59:00,59.8,55.0,29.65,South,181,0.0,0.0,84,0.00,CLR,,0.56,WeatherDisplay:10.37,2013-05-20 10:59:00,
2013-05-20 06:00:00,59.7,54.9,29.65,South,181,0.0,0.0,84,0.00,CLR,,0.56,WeatherDisplay:10.37,2013-05-20 11:00:00,
2013-05-20 06:01:00,59.7,54.9,29.65,South,181,0.0,0.0,84,0.00,CLR,,0.56,WeatherDisplay:10.37,2013-05-20 11:01:00,
2013-05-20 06:04:00,59.7,54.9,29.65,South,181,0.0,0.0,84,0.00,CLR,,0.56,WeatherDisplay:10.37,2013-05-20 11:04:00,
2013-05-20 06:05:00,59.7,54.9,29.65,SSE,161,0.5,2.1,84,0.00,CLR,,0.56,WeatherDisplay:10.37,2013-05-20 11:05:00,
2013-05-20 06:06:00,59.7,54.9,29.65,SE,141,2.4,3.6,84,0.00,CLR,,0.56,WeatherDisplay:10.37,2013-05-20 11:06:00,
2013-05-20 06:10:00,59.5,54.7,29.65,SSW,192,0.1,1.1,84,0.00,CLR,,0.56,WeatherDisplay:10.37,2013-05-20 11:10:00,
2013-05-20 06:11:00,59.5,54.7,29.66,SSW,192,0.0,0.0,84,0.00,CLR,,0.56,WeatherDisplay:10.37,2013-05-20 11:11:00,
2013-05-20 06:15:00,59.4,54.6,29.66,SE,140,0.1,1.1,84,0.00,CLR,,0.56,WeatherDisplay:10.37,2013-05-20 11:15:00,
2013-05-20 06:16:00,59.4,54.6,29.66,SE,140,0.0,1.1,84,0.00,CLR,,0.56,WeatherDisplay:10.37,2013-05-20 11:16:00,
2013-05-20 06:20:00,59.5,54.7,29.67,SSW,203,0.3,2.5,84,0.00,CLR,,0.56,WeatherDisplay:10.37,2013-05-20 11:20:00,
2013-05-20 06:21:00,59.4,54.6,29.67,South,175,0.7,2.3,84,0.00,CLR,,0.56,WeatherDisplay:10.37,2013-05-20 11:21:00,
2013-05-20 06:25:00,59.5,54.7,29.67,ESE,109,1.4,3.5,84,0.00,CLR,,0.56,WeatherDisplay:10.37,2013-05-20 11:25:00,
2013-05-20 06:26:00,59.5,54.7,29.67,ESE,109,0.2,1.1,84,0.00,CLR,,0.56,WeatherDisplay:10.37,2013-05-20 11:26:00,
2013-05-20 06:30:00,59.5,54.7,29.68,SSW,193,0.0,0.0,84,0.00,CLR,,0.56,WeatherDisplay:10.37,2013-05-20 11:30:00,
2013-05-20 06:31:00,59.5,54.7,29.68,SSW,193,0.0,0.0,84,0.00,CLR,,0.56,WeatherDisplay:10.37,2013-05-20 11:31:00,
2013-05-20 06:32:00,59.4,54.6,29.68,SW,216,1.6,4.0,84,0.00,CLR,,0.56,WeatherDisplay:10.37,2013-05-20 11:32:00,
2013-05-20 06:35:00,59.6,54.8,29.69,WSW,240,4.4,6.9,84,0.00,CLR,,0.56,WeatherDisplay:10.37,2013-05-20 11:35:00,
2013-05-20 06:36:00,59.5,54.7,29.69,South,191,1.6,4.6,84,0.00,CLR,,0.56,WeatherDisplay:10.37,2013-05-20 11:36:00,
2013-05-20 06:37:00,59.6,54.8,29.69,South,191,0.0,1.1,84,0.00,CLR,,0.56,WeatherDisplay:10.37,2013-05-20 11:37:00,
2013-05-20 06:40:00,59.8,55.0,29.70,SW,215,3.1,4.6,84,0.00,CLR,,0.56,WeatherDisplay:10.37,2013-05-20 11:40:00,
2013-05-20 06:41:00,59.9,55.1,29.71,South,178,2.1,4.6,84,0.00,CLR,,0.56,WeatherDisplay:10.37,2013-05-20 11:41:00,
2013-05-20 06:42:00,60.0,55.2,29.71,South,169,2.6,3.7,84,0.00,CLR,,0.56,WeatherDisplay:10.37,2013-05-20 11:42:00,
2013-05-20 06:45:00,60.2,55.3,29.71,SSW,206,3.0,6.9,84,0.00,CLR,,0.56,WeatherDisplay:10.37,2013-05-20 11:45:00,
2013-05-20 06:46:00,60.2,55.3,29.71,South,172,4.5,5.8,84,0.00,CLR,,0.56,WeatherDisplay:10.37,2013-05-20 11:46:00,
2013-05-20 06:47:00,60.3,55.4,29.71,South,172,4.5,10.4,84,0.00,CLR,,0.56,WeatherDisplay:10.37,2013-05-20 11:47:00,
2013-05-20 06:48:00,60.4,55.5,29.71,SSW,213,3.9,8.1,84,0.00,CLR,,0.56,WeatherDisplay:10.37,2013-05-20 11:48:00,
2013-05-20 06:51:00,60.5,55.6,29.71,SW,215,4.2,5.8,84,0.00,CLR,,0.56,WeatherDisplay:10.37,2013-05-20 11:51:00,
2013-05-20 06:52:00,60.4,55.5,29.71,SSE,167,2.9,5.8,84,0.00,CLR,,0.56,WeatherDisplay:10.37,2013-05-20 11:52:00,
2013-05-20 06:53:00,60.5,55.6,29.71,SSW,193,2.3,5.8,84,0.00,CLR,,0.56,WeatherDisplay:10.37,2013-05-20 11:53:00,
2013-05-20 06:56:00,60.6,55.7,29.71,SW,216,2.7,6.9,84,0.00,CLR,,0.56,WeatherDisplay:10.37,2013-05-20 11:56:00,
2013-05-20 06:58:00,60.8,55.9,29.71,South,172,3.0,5.8,84,0.00,CLR,,0.56,WeatherDisplay:10.37,2013-05-20 11:58:00,
2013-05-20 07:01:00,61.0,56.1,29.70,SW,216,2.1,5.8,84,0.00,CLR,,0.56,WeatherDisplay:10.37,2013-05-20 12:01:00,
2013-05-20 07:02:00,60.9,56.0,29.70,SSW,213,1.8,9.3,84,0.00,CLR,,0.56,WeatherDisplay:10.37,2013-05-20 12:02:00,
2013-05-20 07:03:00,60.9,56.0,29.70,WSW,253,4.5,9.2,84,0.00,CLR,,0.56,WeatherDisplay:10.37,2013-05-20 12:03:00,
2013-05-20 07:06:00,61.0,56.1,29.70,SW,219,3.2,5.8,84,0.00,CLR,,0.56,WeatherDisplay:10.37,2013-05-20 12:06:00,
2013-05-20 07:07:00,61.1,56.2,29.70,South,169,3.4,9.2,84,0.00,CLR,,0.56,WeatherDisplay:10.37,2013-05-20 12:07:00,
2013-05-20 07:08:00,61.2,56.3,29.70,SSE,160,3.1,5.8,84,0.00,CLR,,0.56,WeatherDisplay:10.37,2013-05-20 12:08:00,
2013-05-20 07:12:00,61.2,56.3,29.70,SSW,213,4.4,9.2,84,0.00,CLR,,0.56,WeatherDisplay:10.37,2013-05-20 12:12:00,
2013-05-20 07:13:00,61.3,56.4,29.70,SSW,210,3.4,10.6,84,0.00,CLR,,0.56,WeatherDisplay:10.37,2013-05-20 12:13:00,
2013-05-20 07:14:00,61.3,56.4,29.70,SSW,205,3.9,10.4,84,0.00,CLR,,0.56,WeatherDisplay:10.37,2013-05-20 12:14:00,
2013-05-20 07:17:00,61.3,56.4,29.70,SSW,209,5.1,9.2,84,0.00,CLR,,0.56,WeatherDisplay:10.37,2013-05-20 12:17:00,
2013-05-20 07:18:00,61.3,56.4,29.70,ESE,117,3.8,6.9,84,0.00,CLR,,0.56,WeatherDisplay:10.37,2013-05-20 12:18:00,
2013-05-20 07:19:00,61.5,56.6,29.70,SSW,196,4.4,8.1,84,0.00,CLR,,0.56,WeatherDisplay:10.37,2013-05-20 12:19:00,
2013-05-20 07:20:00,61.5,56.6,29.70,SSW,198,3.7,5.7,84,0.00,CLR,,0.56,WeatherDisplay:10.37,2013-05-20 12:20:00,
2013-05-20 07:22:00,61.4,56.5,29.70,South,172,4.0,8.1,84,0.00,CLR,,0.56,WeatherDisplay:10.37,2013-05-20 12:22:00,
2013-05-20 07:23:00,61.4,56.5,29.70,WSW,254,2.9,5.8,84,0.00,CLR,,0.56,WeatherDisplay:10.37,2013-05-20 12:23:00,
2013-05-20 07:24:00,61.4,56.5,29.70,South,186,2.3,3.5,84,0.00,CLR,,0.56,WeatherDisplay:10.37,2013-05-20 12:24:00,
2013-05-20 07:25:00,61.5,56.6,29.69,WSW,254,2.2,4.6,84,0.00,CLR,,0.56,WeatherDisplay:10.37,2013-05-20 12:25:00,
2013-05-20 07:27:00,61.5,56.6,29.69,South,191,2.6,4.6,84,0.00,CLR,,0.56,WeatherDisplay:10.37,2013-05-20 12:27:00,
2013-05-20 07:28:00,61.6,56.7,29.69,SW,216,2.7,4.6,84,0.00,CLR,,0.56,WeatherDisplay:10.37,2013-05-20 12:28:00,
2013-05-20 07:29:00,61.7,56.8,29.69,SSE,147,2.8,3.5,84,0.00,CLR,,0.56,WeatherDisplay:10.37,2013-05-20 12:29:00,
2013-05-20 07:31:00,61.6,56.7,29.69,South,171,2.6,5.8,84,0.00,CLR,,0.56,WeatherDisplay:10.37,2013-05-20 12:31:00,
2013-05-20 07:32:00,61.6,56.7,29.69,SE,131,2.3,4.6,84,0.00,CLR,,0.56,WeatherDisplay:10.37,2013-05-20 12:32:00,
2013-05-20 07:33:00,61.8,56.9,29.69,SE,126,3.0,8.1,84,0.00,CLR,,0.56,WeatherDisplay:10.37,2013-05-20 12:33:00,
2013-05-20 07:34:00,61.7,56.8,29.69,SSE,150,2.8,6.9,84,0.00,CLR,,0.56,WeatherDisplay:10.37,2013-05-20 12:34:00,
2013-05-20 07:36:00,61.7,56.5,29.69,SSE,167,1.7,3.5,83,0.00,CLR,,0.56,WeatherDisplay:10.37,2013-05-20 12:36:00,
2013-05-20 07:37:00,61.8,56.6,29.69,NW,315,3.3,4.6,83,0.00,CLR,,0.56,WeatherDisplay:10.37,2013-05-20 12:37:00,
2013-05-20 07:38:00,61.9,56.7,29.69,SSE,168,4.5,8.1,83,0.00,CLR,,0.56,WeatherDisplay:10.37,2013-05-20 12:38:00,
2013-05-20 07:39:00,61.8,56.6,29.69,SE,140,3.2,9.2,83,0.00,CLR,,0.56,WeatherDisplay:10.37,2013-05-20 12:39:00,
2013-05-20 07:41:00,61.9,56.7,29.69,SSE,152,3.0,5.8,83,0.00,CLR,,0.56,WeatherDisplay:10.37,2013-05-20 12:41:00,
2013-05-20 07:42:00,62.0,56.8,29.69,SSE,161,2.8,3.5,83,0.00,CLR,,0.56,WeatherDisplay:10.37,2013-05-20 12:42:00,
2013-05-20 07:43:00,62.1,56.9,29.69,SE,133,1.6,8.3,83,0.00,CLR,,0.56,WeatherDisplay:10.37,2013-05-20 12:43:00,
2013-05-20 07:44:00,62.1,56.9,29.69,SSE,150,2.4,4.6,83,0.00,CLR,,0.56,WeatherDisplay:10.37,2013-05-20 12:44:00,
2013-05-20 07:45:00,62.0,56.8,29.69,South,189,2.2,4.6,83,0.00,CLR,,0.56,WeatherDisplay:10.37,2013-05-20 12:45:00,
2013-05-20 07:46:00,61.9,56.7,29.69,WSW,237,2.6,4.6,83,0.00,CLR,,0.56,WeatherDisplay:10.37,2013-05-20 12:46:00,
2013-05-20 07:47:00,62.1,56.9,29.69,SSE,157,3.3,5.8,83,0.00,CLR,,0.56,WeatherDisplay:10.37,2013-05-20 12:47:00,
2013-05-20 07:48:00,62.0,56.8,29.69,South,185,3.8,5.8,83,0.00,CLR,,0.56,WeatherDisplay:10.37,2013-05-20 12:48:00,
2013-05-20 07:50:00,62.2,57.0,29.69,South,176,3.9,8.1,83,0.00,CLR,,0.56,WeatherDisplay:10.37,2013-05-20 12:50:00,
2013-05-20 07:52:00,62.2,57.0,29.68,South,189,1.2,2.3,83,0.00,CLR,,0.56,WeatherDisplay:10.37,2013-05-20 12:52:00,
2013-05-20 07:53:00,62.2,57.0,29.68,South,178,0.4,2.3,83,0.00,CLR,,0.56,WeatherDisplay:10.37,2013-05-20 12:53:00,
2013-05-20 07:55:00,62.3,57.1,29.67,SSE,154,2.1,4.6,83,0.00,CLR,,0.56,WeatherDisplay:10.37,2013-05-20 12:55:00,
2013-05-20 07:57:00,62.4,57.2,29.67,SW,224,4.5,8.1,83,0.00,CLR,,0.56,WeatherDisplay:10.37,2013-05-20 12:57:00,
2013-05-20 07:58:00,62.5,56.9,29.67,WSW,243,3.9,7.3,82,0.00,CLR,,0.56,WeatherDisplay:10.37,2013-05-20 12:58:00,
2013-05-20 08:00:00,62.5,56.9,29.68,WSW,239,3.9,6.9,82,0.00,CLR,,0.56,WeatherDisplay:10.37,2013-05-20 13:00:00,
2013-05-20 08:01:00,62.5,56.9,29.68,SW,223,4.5,8.1,82,0.00,CLR,,0.56,WeatherDisplay:10.37,2013-05-20 13:01:00,
2013-05-20 08:02:00,62.5,56.9,29.68,SW,217,2.1,8.1,82,0.00,CLR,,0.56,WeatherDisplay:10.37,2013-05-20 13:02:00,
2013-05-20 08:03:00,62.5,56.9,29.68,West,265,1.8,3.5,82,0.00,CLR,,0.56,WeatherDisplay:10.37,2013-05-20 13:03:00,
2013-05-20 08:05:00,62.5,56.9,29.68,SSW,208,4.1,5.8,82,0.00,CLR,,0.56,WeatherDisplay:10.37,2013-05-20 13:05:00,
2013-05-20 08:06:00,62.6,57.0,29.68,WSW,248,4.3,8.1,82,0.00,CLR,,0.56,WeatherDisplay:10.37,2013-05-20 13:06:00,
2013-05-20 08:07:00,62.5,56.9,29.68,SW,223,3.6,5.8,82,0.00,CLR,,0.56,WeatherDisplay:10.37,2013-05-20 13:07:00,
2013-05-20 08:08:00,62.6,57.0,29.68,SW,227,3.7,5.8,82,0.00,CLR,,0.56,WeatherDisplay:10.37,2013-05-20 13:08:00,
2013-05-20 08:10:00,62.8,57.2,29.68,SW,220,2.1,4.6,82,0.00,CLR,,0.56,WeatherDisplay:10.37,2013-05-20 13:10:00,
2013-05-20 08:11:00,62.8,57.2,29.68,SW,226,2.5,3.9,82,0.00,CLR,,0.56,WeatherDisplay:10.37,2013-05-20 13:11:00,
2013-05-20 08:13:00,62.8,57.2,29.68,SW,219,3.6,4.6,82,0.00,CLR,,0.56,WeatherDisplay:10.37,2013-05-20 13:13:00,
2013-05-20 08:15:00,62.9,57.0,29.68,SW,227,4.4,5.4,81,0.00,CLR,,0.56,WeatherDisplay:10.37,2013-05-20 13:15:00,
2013-05-20 08:17:00,63.1,57.2,29.68,SW,227,1.6,4.6,81,0.00,CLR,,0.56,WeatherDisplay:10.37,2013-05-20 13:17:00,
2013-05-20 08:18:00,63.1,57.2,29.68,SW,223,3.3,4.6,81,0.00,CLR,,0.56,WeatherDisplay:10.37,2013-05-20 13:18:00,
2013-05-20 08:20:00,63.1,57.2,29.68,SE,128,3.5,4.6,81,0.00,CLR,,0.56,WeatherDisplay:10.37,2013-05-20 13:20:00,
2013-05-20 08:22:00,63.0,57.1,29.67,SSW,205,1.9,3.5,81,0.00,CLR,,0.56,WeatherDisplay:10.37,2013-05-20 13:22:00,
2013-05-20 08:23:00,63.2,56.9,29.68,SW,226,3.5,5.8,80,0.00,CLR,,0.56,WeatherDisplay:10.37,2013-05-20 13:23:00,
2013-05-20 08:25:00,63.3,57.0,29.68,SSW,203,2.2,3.5,80,0.00,CLR,,0.56,WeatherDisplay:10.37,2013-05-20 13:25:00,
2013-05-20 08:27:00,63.4,57.1,29.68,SW,216,5.1,8.1,80,0.00,CLR,,0.56,WeatherDisplay:10.37,2013-05-20 13:27:00,
2013-05-20 08:28:00,63.5,57.2,29.68,SW,217,3.0,6.9,80,0.00,CLR,,0.56,WeatherDisplay:10.37,2013-05-20 13:28:00,
2013-05-20 08:29:00,63.5,57.2,29.68,SSW,206,4.8,6.9,80,0.00,CLR,,0.56,WeatherDisplay:10.37,2013-05-20 13:29:00,
2013-05-20 08:31:00,63.6,57.3,29.68,SE,143,2.1,3.5,80,0.00,CLR,,0.56,WeatherDisplay:10.37,2013-05-20 13:31:00,
2013-05-20 08:32:00,63.8,57.2,29.68,SSE,147,1.2,6.9,79,0.00,CLR,,0.56,WeatherDisplay:10.37,2013-05-20 13:32:00,
2013-05-20 08:33:00,63.9,57.3,29.68,South,181,1.2,2.3,79,0.00,CLR,,0.56,WeatherDisplay:10.37,2013-05-20 13:33:00,
2013-05-20 08:34:00,64.0,57.4,29.69,SSE,165,2.0,4.7,79,0.00,CLR,,0.56,WeatherDisplay:10.37,2013-05-20 13:34:00,
2013-05-20 08:36:00,64.1,57.5,29.69,South,184,1.5,4.6,79,0.00,CLR,,0.56,WeatherDisplay:10.37,2013-05-20 13:36:00,
2013-05-20 08:37:00,64.2,57.5,29.69,South,184,3.9,4.6,79,0.00,CLR,,0.56,WeatherDisplay:10.37,2013-05-20 13:37:00,
2013-05-20 08:38:00,64.3,57.6,29.69,SSE,164,2.5,6.9,79,0.00,CLR,,0.56,WeatherDisplay:10.37,2013-05-20 13:38:00,
2013-05-20 08:39:00,64.3,57.3,29.69,SSW,200,5.2,8.1,78,0.00,CLR,,0.56,WeatherDisplay:10.37,2013-05-20 13:39:00,
2013-05-20 08:41:00,64.4,57.4,29.69,WSW,241,2.4,5.8,78,0.00,CLR,,0.56,WeatherDisplay:10.37,2013-05-20 13:41:00,
2013-05-20 08:43:00,64.5,57.5,29.68,SSE,161,2.7,5.8,78,0.00,CLR,,0.56,WeatherDisplay:10.37,2013-05-20 13:43:00,
2013-05-20 08:44:00,64.6,57.6,29.68,South,185,0.9,3.5,78,0.00,CLR,,0.56,WeatherDisplay:10.37,2013-05-20 13:44:00,
2013-05-20 08:46:00,64.6,57.2,29.69,SW,217,3.7,5.8,77,0.00,CLR,,0.56,WeatherDisplay:10.37,2013-05-20 13:46:00,
2013-05-20 08:48:00,64.7,57.3,29.69,SW,232,3.2,5.8,77,0.00,CLR,,0.56,WeatherDisplay:10.37,2013-05-20 13:48:00,
2013-05-20 08:49:00,64.7,57.3,29.68,SSW,209,2.8,3.5,77,0.00,CLR,,0.56,WeatherDisplay:10.37,2013-05-20 13:49:00,
2013-05-20 08:50:00,64.8,57.1,29.68,SSW,213,3.0,3.5,76,0.00,CLR,,0.56,WeatherDisplay:10.37,2013-05-20 13:50:00,
2013-05-20 08:51:00,64.9,57.2,29.69,SW,222,3.0,6.3,76,0.00,CLR,,0.56,WeatherDisplay:10.37,2013-05-20 13:51:00,
2013-05-20 08:53:00,65.0,57.2,29.69,SSW,209,4.9,6.9,76,0.00,CLR,,0.56,WeatherDisplay:10.37,2013-05-20 13:53:00,
2013-05-20 08:54:00,65.1,57.3,29.69,SSE,162,3.3,4.6,76,0.00,CLR,,0.56,WeatherDisplay:10.37,2013-05-20 13:54:00,
2013-05-20 08:55:00,65.1,57.3,29.69,SSW,210,4.4,5.8,76,0.00,CLR,,0.56,WeatherDisplay:10.37,2013-05-20 13:55:00,
2013-05-20 08:56:00,65.2,57.4,29.69,SW,216,5.6,7.0,76,0.00,CLR,,0.56,WeatherDisplay:10.37,2013-05-20 13:56:00,
2013-05-20 08:58:00,65.2,57.1,29.69,SSW,203,4.6,6.9,75,0.00,CLR,,0.56,WeatherDisplay:10.37,2013-05-20 13:58:00,
2013-05-20 08:59:00,65.2,57.1,29.69,SW,220,4.3,6.9,75,0.00,CLR,,0.56,WeatherDisplay:10.37,2013-05-20 13:59:00,
2013-05-20 09:00:00,65.3,57.2,29.69,SW,229,3.0,6.4,75,0.00,CLR,,0.56,WeatherDisplay:10.37,2013-05-20 14:00:00,
2013-05-20 09:02:00,65.6,57.5,29.69,SW,234,3.9,6.2,75,0.00,CLR,,0.56,WeatherDisplay:10.37,2013-05-20 14:02:00,
2013-05-20 09:03:00,65.7,57.6,29.69,SW,229,3.1,9.2,75,0.00,CLR,,0.56,WeatherDisplay:10.37,2013-05-20 14:03:00,
2013-05-20 09:04:00,65.7,57.6,29.69,ESE,104,2.9,4.6,75,0.00,CLR,,0.56,WeatherDisplay:10.37,2013-05-20 14:04:00,
2013-05-20 09:06:00,65.9,57.7,29.69,SSW,212,3.7,4.6,75,0.00,CLR,,0.56,WeatherDisplay:10.37,2013-05-20 14:06:00,
2013-05-20 09:07:00,66.0,57.5,29.69,SW,224,4.1,5.8,74,0.00,CLR,,0.56,WeatherDisplay:10.37,2013-05-20 14:07:00,
2013-05-20 09:09:00,66.2,57.7,29.69,SSW,195,4.6,6.3,74,0.00,CLR,,0.56,WeatherDisplay:10.37,2013-05-20 14:09:00,
2013-05-20 09:11:00,66.3,57.4,29.69,WSW,243,5.2,9.2,73,0.00,CLR,,0.56,WeatherDisplay:10.37,2013-05-20 14:11:00,
2013-05-20 09:12:00,66.3,57.0,29.69,SW,216,8.1,12.7,72,0.00,CLR,,0.56,WeatherDisplay:10.37,2013-05-20 14:12:00,
2013-05-20 09:14:00,66.5,57.2,29.69,SW,223,7.3,11.5,72,0.00,CLR,,0.56,WeatherDisplay:10.37,2013-05-20 14:14:00,
2013-05-20 09:16:00,66.7,57.0,29.70,South,191,7.9,11.5,71,0.00,CLR,,0.56,WeatherDisplay:10.37,2013-05-20 14:16:00,
2013-05-20 09:17:00,66.8,56.7,29.70,SW,229,7.3,10.4,70,0.00,CLR,,0.56,WeatherDisplay:10.37,2013-05-20 14:17:00,
2013-05-20 09:19:00,66.8,56.7,29.70,SW,219,7.1,9.2,70,0.00,CLR,,0.56,WeatherDisplay:10.37,2013-05-20 14:19:00,
2013-05-20 09:20:00,66.8,56.7,29.70,SW,227,5.8,9.2,70,0.00,CLR,,0.56,WeatherDisplay:10.37,2013-05-20 14:20:00,
2013-05-20 09:21:00,66.9,56.4,29.70,West,267,6.9,12.7,69,0.00,CLR,,0.56,WeatherDisplay:10.37,2013-05-20 14:21:00,
2013-05-20 09:22:00,66.9,56.8,29.70,SW,234,4.9,8.1,70,0.00,CLR,,0.56,WeatherDisplay:10.37,2013-05-20 14:22:00,
2013-05-20 09:24:00,67.0,56.5,29.70,SW,233,4.8,11.5,69,0.00,CLR,,0.56,WeatherDisplay:10.37,2013-05-20 14:24:00,
2013-05-20 09:25:00,67.0,56.5,29.69,SW,215,5.9,8.1,69,0.00,CLR,,0.56,WeatherDisplay:10.37,2013-05-20 14:25:00,
2013-05-20 09:26:00,67.1,57.0,29.69,SW,226,5.1,8.1,70,0.00,CLR,,0.56,WeatherDisplay:10.37,2013-05-20 14:26:00,
2013-05-20 09:28:00,67.1,56.2,29.69,SW,232,9.9,17.3,68,0.00,CLR,,0.56,WeatherDisplay:10.37,2013-05-20 14:28:00,
2013-05-20 09:29:00,67.2,56.3,29.70,SW,219,6.4,13.8,68,0.00,CLR,,0.56,WeatherDisplay:10.37,2013-05-20 14:29:00,
2013-05-20 09:30:00,67.2,55.9,29.70,SW,230,6.7,11.5,67,0.00,CLR,,0.56,WeatherDisplay:10.37,2013-05-20 14:30:00,
2013-05-20 09:31:00,67.3,56.0,29.70,SSW,210,6.4,9.2,67,0.00,CLR,,0.56,WeatherDisplay:10.37,2013-05-20 14:31:00,
2013-05-20 09:33:00,67.4,56.1,29.70,WSW,253,6.0,10.4,67,0.00,CLR,,0.56,WeatherDisplay:10.37,2013-05-20 14:33:00,
2013-05-20 09:34:00,67.3,56.0,29.70,SSW,208,6.2,8.8,67,0.00,CLR,,0.56,WeatherDisplay:10.37,2013-05-20 14:34:00,
2013-05-20 09:35:00,67.5,56.2,29.70,SW,236,6.4,9.2,67,0.00,CLR,,0.56,WeatherDisplay:10.37,2013-05-20 14:35:00,
2013-05-20 09:36:00,67.5,56.2,29.70,SW,217,7.6,9.5,67,0.00,CLR,,0.56,WeatherDisplay:10.37,2013-05-20 14:36:00,
2013-05-20 09:38:00,67.4,55.6,29.70,SSW,213,8.0,9.2,66,0.00,CLR,,0.56,WeatherDisplay:10.37,2013-05-20 14:38:00,
2013-05-20 09:40:00,67.5,55.7,29.70,SW,229,7.9,11.5,66,0.00,CLR,,0.56,WeatherDisplay:10.37,2013-05-20 14:40:00,
2013-05-20 09:41:00,67.6,55.8,29.70,WSW,240,6.7,9.2,66,0.00,CLR,,0.56,WeatherDisplay:10.37,2013-05-20 14:41:00,
2013-05-20 09:44:00,67.8,55.6,29.70,SSW,199,8.2,15.0,65,0.00,CLR,,0.56,WeatherDisplay:10.37,2013-05-20 14:44:00,
2013-05-20 09:45:00,67.8,55.2,29.70,SW,222,7.0,12.7,64,0.00,CLR,,0.56,WeatherDisplay:10.37,2013-05-20 14:45:00,
2013-05-20 09:46:00,67.9,55.7,29.70,SSW,213,6.3,9.2,65,0.00,CLR,,0.56,WeatherDisplay:10.37,2013-05-20 14:46:00,
2013-05-20 09:47:00,67.9,55.7,29.70,SW,217,4.7,9.8,65,0.00,CLR,,0.56,WeatherDisplay:10.37,2013-05-20 14:47:00,
2013-05-20 09:49:00,68.0,55.4,29.70,SSW,213,8.2,13.8,64,0.00,CLR,,0.56,WeatherDisplay:10.37,2013-05-20 14:49:00,
2013-05-20 09:50:00,67.9,55.3,29.70,South,191,10.9,13.8,64,0.00,CLR,,0.56,WeatherDisplay:10.37,2013-05-20 14:50:00,
2013-05-20 09:51:00,67.9,55.3,29.70,SW,220,8.5,15.0,64,0.00,CLR,,0.56,WeatherDisplay:10.37,2013-05-20 14:51:00,
2013-05-20 09:53:00,67.8,55.2,29.70,WSW,244,10.1,15.0,64,0.00,CLR,,0.56,WeatherDisplay:10.37,2013-05-20 14:53:00,
2013-05-20 09:55:00,68.1,55.0,29.70,SSW,196,7.7,12.7,63,0.00,CLR,,0.56,WeatherDisplay:10.37,2013-05-20 14:55:00,
2013-05-20 09:56:00,68.1,55.0,29.70,SW,229,9.3,17.3,63,0.00,CLR,,0.56,WeatherDisplay:10.37,2013-05-20 14:56:00,
2013-05-20 09:58:00,68.0,55.4,29.70,SW,219,10.0,13.8,64,0.00,CLR,,0.56,WeatherDisplay:10.37,2013-05-20 14:58:00,
2013-05-20 10:00:00,68.1,55.0,29.70,SSW,208,10.0,18.8,63,0.00,CLR,,0.56,WeatherDisplay:10.37,2013-05-20 15:00:00,
2013-05-20 10:01:00,68.1,55.0,29.70,SW,217,11.7,18.4,63,0.00,CLR,,0.56,WeatherDisplay:10.37,2013-05-20 15:01:00,
2013-05-20 10:02:00,68.2,55.1,29.70,SW,227,7.6,11.5,63,0.00,CLR,,0.56,WeatherDisplay:10.37,2013-05-20 15:02:00,
2013-05-20 10:03:00,68.1,55.0,29.70,SW,234,8.9,11.5,63,0.00,CLR,,0.56,WeatherDisplay:10.37,2013-05-20 15:03:00,
2013-05-20 10:06:00,68.3,55.2,29.70,SW,217,8.2,12.7,63,0.00,CLR,,0.56,WeatherDisplay:10.37,2013-05-20 15:06:00,
2013-05-20 10:07:00,68.5,55.8,29.70,WSW,250,7.6,11.5,64,0.00,CLR,,0.56,WeatherDisplay:10.37,2013-05-20 15:07:00,
2013-05-20 10:08:00,68.4,55.7,29.70,SW,227,7.5,11.5,64,0.00,CLR,,0.56,WeatherDisplay:10.37,2013-05-20 15:08:00,
2013-05-20 10:11:00,68.4,55.3,29.70,SSW,210,9.6,16.1,63,0.00,CLR,,0.56,WeatherDisplay:10.37,2013-05-20 15:11:00,
2013-05-20 10:12:00,68.6,55.1,29.70,WSW,244,6.8,15.0,62,0.00,CLR,,0.56,WeatherDisplay:10.37,2013-05-20 15:12:00,
2013-05-20 10:13:00,68.6,55.1,29.70,SW,223,9.4,15.9,62,0.00,CLR,,0.56,WeatherDisplay:10.37,2013-05-20 15:13:00,
2013-05-20 10:16:00,68.7,54.3,29.70,WSW,240,8.7,12.7,60,0.00,CLR,,0.56,WeatherDisplay:10.37,2013-05-20 15:16:00,
2013-05-20 10:17:00,68.8,53.9,29.70,South,185,9.3,13.8,59,0.00,CLR,,0.56,WeatherDisplay:10.37,2013-05-20 15:17:00,
2013-05-20 10:18:00,68.8,54.3,29.70,WSW,239,8.7,12.7,60,0.00,CLR,,0.56,WeatherDisplay:10.37,2013-05-20 15:18:00,
2013-05-20 10:21:00,68.9,54.4,29.70,SSW,209,7.9,11.4,60,0.00,CLR,,0.56,WeatherDisplay:10.37,2013-05-20 15:21:00,
2013-05-20 10:22:00,68.9,54.4,29.70,SSW,206,8.2,12.7,60,0.00,CLR,,0.56,WeatherDisplay:10.37,2013-05-20 15:22:00,
2013-05-20 10:23:00,68.9,54.4,29.70,SSW,196,9.0,15.0,60,0.00,CLR,,0.56,WeatherDisplay:10.37,2013-05-20 15:23:00,
2013-05-20 10:27:00,68.9,54.4,29.70,WSW,250,7.7,11.5,60,0.00,CLR,,0.56,WeatherDisplay:10.37,2013-05-20 15:27:00,
2013-05-20 10:28:00,69.2,54.7,29.70,SSW,206,8.0,9.2,60,0.00,CLR,,0.56,WeatherDisplay:10.37,2013-05-20 15:28:00,
2013-05-20 10:32:00,69.3,54.8,29.70,SSW,203,6.8,13.8,60,0.00,CLR,,0.56,WeatherDisplay:10.37,2013-05-20 15:32:00,
2013-05-20 10:33:00,69.4,54.9,29.70,SW,229,7.3,11.5,60,0.00,CLR,,0.56,WeatherDisplay:10.37,2013-05-20 15:33:00,
2013-05-20 10:37:00,69.6,54.6,29.71,SW,219,5.9,10.4,59,0.00,CLR,,0.56,WeatherDisplay:10.37,2013-05-20 15:37:00,
2013-05-20 10:38:00,69.6,54.6,29.71,WSW,240,7.1,13.0,59,0.00,CLR,,0.56,WeatherDisplay:10.37,2013-05-20 15:38:00,
2013-05-20 10:42:00,69.8,53.9,29.71,SW,222,9.4,18.4,57,0.00,CLR,,0.56,WeatherDisplay:10.37,2013-05-20 15:42:00,
2013-05-20 10:43:00,69.8,53.4,29.71,West,274,7.6,13.8,56,0.00,CLR,,0.56,WeatherDisplay:10.37,2013-05-20 15:43:00,
2013-05-20 10:44:00,69.8,53.4,29.71,WSW,258,8.1,13.9,56,0.00,CLR,,0.56,WeatherDisplay:10.37,2013-05-20 15:44:00,
2013-05-20 10:47:00,69.9,54.0,29.71,SW,227,7.5,10.4,57,0.00,CLR,,0.56,WeatherDisplay:10.37,2013-05-20 15:47:00,
2013-05-20 10:48:00,70.0,54.1,29.71,SW,227,7.5,10.4,57,0.00,CLR,,0.56,WeatherDisplay:10.37,2013-05-20 15:48:00,
2013-05-20 10:49:00,70.0,54.5,29.71,SW,234,8.7,12.7,58,0.00,CLR,,0.56,WeatherDisplay:10.37,2013-05-20 15:49:00,
2013-05-20 10:52:00,70.2,53.3,29.71,WSW,258,8.9,13.8,55,0.00,CLR,,0.56,WeatherDisplay:10.37,2013-05-20 15:52:00,
2013-05-20 10:53:00,70.0,53.6,29.71,SW,215,8.0,15.0,56,0.00,CLR,,0.56,WeatherDisplay:10.37,2013-05-20 15:53:00,
2013-05-20 10:54:00,70.0,53.1,29.71,SW,217,10.6,16.1,55,0.00,CLR,,0.56,WeatherDisplay:10.37,2013-05-20 15:54:00,
2013-05-20 10:57:00,70.3,54.3,29.70,South,188,6.3,9.2,57,0.00,CLR,,0.56,WeatherDisplay:10.37,2013-05-20 15:57:00,
2013-05-20 10:58:00,70.4,54.4,29.70,SW,224,5.7,11.5,57,0.00,CLR,,0.56,WeatherDisplay:10.37,2013-05-20 15:58:00,
2013-05-20 10:59:00,70.3,54.3,29.70,SSW,202,9.9,15.0,57,0.00,CLR,,0.56,WeatherDisplay:10.37,2013-05-20 15:59:00,
2013-05-20 11:00:00,70.3,53.9,29.70,SSW,213,10.6,15.0,56,0.00,CLR,,0.56,WeatherDisplay:10.37,2013-05-20 16:00:00,
2013-05-20 11:02:00,70.5,53.6,29.70,SSW,210,6.7,10.4,55,0.00,CLR,,0.56,WeatherDisplay:10.37,2013-05-20 16:02:00,
2013-05-20 11:03:00,70.5,53.6,29.70,SW,223,6.3,8.1,55,0.00,CLR,,0.56,WeatherDisplay:10.37,2013-05-20 16:03:00,
2013-05-20 11:04:00,70.5,54.0,29.70,West,261,5.5,6.9,56,0.00,CLR,,0.56,WeatherDisplay:10.37,2013-05-20 16:04:00,
2013-05-20 11:05:00,70.6,54.1,29.70,SW,224,6.0,9.2,56,0.00,CLR,,0.56,WeatherDisplay:10.37,2013-05-20 16:05:00,
2013-05-20 11:08:00,70.7,53.7,29.70,NW,315,5.4,10.4,55,0.00,CLR,,0.56,WeatherDisplay:10.37,2013-05-20 16:08:00,
2013-05-20 11:09:00,70.6,53.6,29.70,SSW,208,4.3,8.6,55,0.00,CLR,,0.56,WeatherDisplay:10.37,2013-05-20 16:09:00,
2013-05-20 11:10:00,70.7,54.2,29.70,West,278,5.3,10.4,56,0.00,CLR,,0.56,WeatherDisplay:10.37,2013-05-20 16:10:00,
2013-05-20 11:13:00,70.9,54.4,29.69,SW,230,6.8,9.2,56,0.00,CLR,,0.56,WeatherDisplay:10.37,2013-05-20 16:13:00,
2013-05-20 11:14:00,71.0,54.5,29.69,West,260,6.1,9.2,56,0.00,CLR,,0.56,WeatherDisplay:10.37,2013-05-20 16:14:00,
2013-05-20 11:15:00,70.9,54.4,29.69,WSW,251,5.6,10.4,56,0.00,CLR,,0.56,WeatherDisplay:10.37,2013-05-20 16:15:00,
2013-05-20 11:18:00,71.1,53.6,29.69,SSW,203,4.5,6.9,54,0.00,CLR,,0.56,WeatherDisplay:10.37,2013-05-20 16:18:00,
2013-05-20 11:19:00,71.2,54.2,29.70,SW,222,5.4,6.3,55,0.00,CLR,,0.56,WeatherDisplay:10.37,2013-05-20 16:19:00,
2013-05-20 11:20:00,71.2,54.2,29.69,SW,220,6.4,8.1,55,0.00,CLR,,0.56,WeatherDisplay:10.37,2013-05-20 16:20:00,
2013-05-20 11:23:00,71.3,53.8,29.69,WSW,239,7.4,10.4,54,0.00,CLR,,0.56,WeatherDisplay:10.37,2013-05-20 16:23:00,
2013-05-20 11:24:00,71.4,53.9,29.69,SSW,203,3.8,10.4,54,0.00,CLR,,0.56,WeatherDisplay:10.37,2013-05-20 16:24:00,
2013-05-20 11:25:00,71.5,54.0,29.69,South,181,3.7,5.8,54,0.00,CLR,,0.56,WeatherDisplay:10.37,2013-05-20 16:25:00,
2013-05-20 11:28:00,71.5,54.5,29.69,SW,232,4.8,6.9,55,0.00,CLR,,0.56,WeatherDisplay:10.37,2013-05-20 16:28:00,
2013-05-20 11:29:00,71.6,54.1,29.69,SW,223,7.5,10.3,54,0.00,CLR,,0.56,WeatherDisplay:10.37,2013-05-20 16:29:00,
2013-05-20 11:30:00,71.6,54.1,29.69,SSW,203,8.6,11.5,54,0.00,CLR,,0.56,WeatherDisplay:10.37,2013-05-20 16:30:00,
2013-05-20 11:33:00,71.9,54.3,29.70,South,175,5.5,8.6,54,0.00,CLR,,0.56,WeatherDisplay:10.37,2013-05-20 16:33:00,
2013-05-20 11:35:00,71.9,54.3,29.70,SSW,213,6.6,12.9,54,0.00,CLR,,0.56,WeatherDisplay:10.37,2013-05-20 16:35:00,
2013-05-20 11:36:00,71.9,54.3,29.70,SW,215,7.3,11.5,54,0.00,CLR,,0.56,WeatherDisplay:10.37,2013-05-20 16:36:00,
2013-05-20 11:38:00,72.2,54.6,29.70,SSW,199,7.7,9.2,54,0.00,CLR,,0.56,WeatherDisplay:10.37,2013-05-20 16:38:00,
2013-05-20 11:40:00,72.2,53.6,29.69,SSW,202,6.3,9.2,52,0.00,CLR,,0.56,WeatherDisplay:10.37,2013-05-20 16:40:00,
2013-05-20 11:41:00,72.2,53.6,29.69,SW,232,7.0,11.5,52,0.00,CLR,,0.56,WeatherDisplay:10.37,2013-05-20 16:41:00,
2013-05-20 11:43:00,72.4,53.2,29.69,West,265,8.7,12.7,51,0.00,CLR,,0.56,WeatherDisplay:10.37,2013-05-20 16:43:00,
2013-05-20 11:45:00,72.3,53.7,29.69,SW,219,7.5,10.4,52,0.00,CLR,,0.56,WeatherDisplay:10.37,2013-05-20 16:45:00,
2013-05-20 11:46:00,72.3,53.7,29.69,SSW,212,7.5,10.4,52,0.00,CLR,,0.56,WeatherDisplay:10.37,2013-05-20 16:46:00,
2013-05-20 11:49:00,72.3,54.2,29.69,WSW,247,6.8,9.2,53,0.00,CLR,,0.56,WeatherDisplay:10.37,2013-05-20 16:49:00,
2013-05-20 11:50:00,72.5,53.3,29.69,SW,217,6.6,9.2,51,0.00,CLR,,0.56,WeatherDisplay:10.37,2013-05-20 16:50:00,
2013-05-20 11:51:00,72.3,53.2,29.69,West,275,7.1,10.2,51,0.00,CLR,,0.56,WeatherDisplay:10.37,2013-05-20 16:51:00,
2013-05-20 11:52:00,72.6,52.9,29.69,SSW,195,7.4,10.4,50,0.00,CLR,,0.56,WeatherDisplay:10.37,2013-05-20 16:52:00,
2013-05-20 11:54:00,72.7,54.1,29.69,West,263,5.8,10.4,52,0.00,CLR,,0.56,WeatherDisplay:10.37,2013-05-20 16:54:00,
2013-05-20 11:56:00,72.7,53.0,29.69,SW,236,5.2,10.4,50,0.00,CLR,,0.56,WeatherDisplay:10.37,2013-05-20 16:56:00,
2013-05-20 11:57:00,72.8,53.1,29.69,WSW,241,4.2,6.9,50,0.00,CLR,,0.56,WeatherDisplay:10.37,2013-05-20 16:57:00,
2013-05-20 11:59:00,72.8,53.1,29.69,SSW,209,5.8,10.4,50,0.00,CLR,,0.56,WeatherDisplay:10.37,2013-05-20 16:59:00,
2013-05-20 12:01:00,73.0,53.8,29.69,West,267,6.0,11.5,51,0.00,CLR,,0.56,WeatherDisplay:10.37,2013-05-20 17:01:00,
2013-05-20 12:02:00,73.0,53.3,29.69,WSW,248,7.2,11.1,50,0.00,CLR,,0.56,WeatherDisplay:10.37,2013-05-20 17:02:00,
2013-05-20 12:04:00,73.1,52.8,29.70,WSW,239,8.1,13.8,49,0.00,CLR,,0.56,WeatherDisplay:10.37,2013-05-20 17:04:00,
2013-05-20 12:06:00,73.2,53.4,29.69,West,271,6.0,8.1,50,0.00,CLR,,0.56,WeatherDisplay:10.37,2013-05-20 17:06:00,
2013-05-20 12:07:00,73.4,53.6,29.69,WSW,251,6.2,9.2,50,0.00,CLR,,0.56,WeatherDisplay:10.37,2013-05-20 17:07:00,
2013-05-20 12:09:00,73.5,53.7,29.70,SW,223,8.3,9.0,50,0.00,CLR,,0.56,WeatherDisplay:10.37,2013-05-20 17:09:00,
2013-05-20 12:11:00,73.6,53.3,29.70,WSW,241,6.3,15.0,49,0.00,CLR,,0.56,WeatherDisplay:10.37,2013-05-20 17:11:00,
2013-05-20 12:12:00,73.6,53.3,29.70,SSW,210,7.9,15.0,49,0.00,CLR,,0.56,WeatherDisplay:10.37,2013-05-20 17:12:00,
2013-05-20 12:15:00,73.8,52.3,29.70,SW,233,8.1,12.7,47,0.00,CLR,,0.56,WeatherDisplay:10.37,2013-05-20 17:15:00,
2013-05-20 12:16:00,73.6,51.5,29.70,WSW,246,7.5,10.4,46,0.00,CLR,,0.56,WeatherDisplay:10.37,2013-05-20 17:16:00,
2013-05-20 12:17:00,73.6,52.1,29.70,SSW,210,7.8,10.4,47,0.00,CLR,,0.56,WeatherDisplay:10.37,2013-05-20 17:17:00,
2013-05-20 12:20:00,73.9,53.5,29.70,SSW,199,6.1,10.4,49,0.00,CLR,,0.56,WeatherDisplay:10.37,2013-05-20 17:20:00,
2013-05-20 12:21:00,74.1,53.7,29.70,SW,223,5.3,6.9,49,0.00,CLR,,0.56,WeatherDisplay:10.37,2013-05-20 17:21:00,
2013-05-20 12:22:00,74.0,53.6,29.70,SSW,206,4.5,8.1,49,0.00,CLR,,0.56,WeatherDisplay:10.37,2013-05-20 17:22:00,
2013-05-20 12:23:00,74.0,54.2,29.70,SW,227,4.9,8.1,50,0.00,CLR,,0.56,WeatherDisplay:10.37,2013-05-20 17:23:00,
2013-05-20 12:25:00,74.1,54.8,29.70,NNW,332,5.0,8.1,51,0.00,CLR,,0.56,WeatherDisplay:10.37,2013-05-20 17:25:00,
2013-05-20 12:27:00,74.3,53.9,29.70,South,176,6.7,10.4,49,0.00,CLR,,0.56,WeatherDisplay:10.37,2013-05-20 17:27:00,
2013-05-20 12:28:00,74.4,54.0,29.70,SW,219,4.3,11.3,49,0.00,CLR,,0.56,WeatherDisplay:10.37,2013-05-20 17:28:00,
2013-05-20 12:30:00,74.6,54.2,29.70,SW,236,8.1,12.7,49,0.00,CLR,,0.56,WeatherDisplay:10.37,2013-05-20 17:30:00,
2013-05-20 12:32:00,74.6,53.0,29.70,WSW,239,6.6,10.4,47,0.00,CLR,,0.56,WeatherDisplay:10.37,2013-05-20 17:32:00,
2013-05-20 12:33:00,74.5,53.5,29.70,SW,220,4.3,8.1,48,0.00,CLR,,0.56,WeatherDisplay:10.37,2013-05-20 17:33:00,
2013-05-20 12:35:00,74.7,53.7,29.70,South,185,5.0,9.1,48,0.00,CLR,,0.56,WeatherDisplay:10.37,2013-05-20 17:35:00,
2013-05-20 12:37:00,75.0,54.0,29.70,South,169,6.7,12.4,48,0.00,CLR,,0.56,WeatherDisplay:10.37,2013-05-20 17:37:00,
2013-05-20 12:38:00,74.9,53.9,29.70,SW,226,7.6,12.7,48,0.00,CLR,,0.56,WeatherDisplay:10.37,2013-05-20 17:38:00,
2013-05-20 12:40:00,75.0,54.0,29.70,SW,219,4.3,6.9,48,0.00,CLR,,0.56,WeatherDisplay:10.37,2013-05-20 17:40:00,
2013-05-20 12:42:00,75.2,53.6,29.70,SW,224,9.1,11.5,47,0.00,CLR,,0.56,WeatherDisplay:10.37,2013-05-20 17:42:00,
2013-05-20 12:43:00,75.2,53.6,29.70,WSW,237,8.8,11.5,47,0.00,CLR,,0.56,WeatherDisplay:10.37,2013-05-20 17:43:00,
2013-05-20 12:44:00,75.3,53.7,29.70,SW,232,8.5,12.7,47,0.00,CLR,,0.56,WeatherDisplay:10.37,2013-05-20 17:44:00,
2013-05-20 12:45:00,75.3,54.3,29.70,WSW,243,5.3,10.4,48,0.00,CLR,,0.56,WeatherDisplay:10.37,2013-05-20 17:45:00,
2013-05-20 12:47:00,75.5,53.9,29.70,SW,220,6.7,13.7,47,0.00,CLR,,0.56,WeatherDisplay:10.37,2013-05-20 17:47:00,
2013-05-20 12:48:00,75.7,53.4,29.70,SW,220,7.8,13.8,46,0.00,CLR,,0.56,WeatherDisplay:10.37,2013-05-20 17:48:00,
2013-05-20 12:49:00,75.5,53.3,29.70,WSW,241,7.1,13.8,46,0.00,CLR,,0.56,WeatherDisplay:10.37,2013-05-20 17:49:00,
2013-05-20 12:50:00,75.7,54.0,29.70,SW,224,6.1,12.7,47,0.00,CLR,,0.56,WeatherDisplay:10.37,2013-05-20 17:50:00,
2013-05-20 12:52:00,76.0,55.5,29.70,SSW,195,7.1,7.5,49,0.00,CLR,,0.56,WeatherDisplay:10.37,2013-05-20 17:52:00,
2013-05-20 12:53:00,76.0,55.5,29.70,SW,223,7.8,11.5,49,0.00,CLR,,0.56,WeatherDisplay:10.37,2013-05-20 17:53:00,
2013-05-20 12:54:00,76.0,54.9,29.70,WSW,243,6.1,9.3,48,0.00,CLR,,0.56,WeatherDisplay:10.37,2013-05-20 17:54:00,
2013-05-20 12:56:00,76.2,54.5,29.70,SW,216,5.3,11.5,47,0.00,CLR,,0.56,WeatherDisplay:10.37,2013-05-20 17:56:00,
2013-05-20 12:58:00,76.4,54.1,29.70,SSW,206,7.0,9.2,46,0.00,CLR,,0.56,WeatherDisplay:10.37,2013-05-20 17:58:00,
2013-05-20 12:59:00,76.4,54.7,29.70,SW,224,6.1,12.5,47,0.00,CLR,,0.56,WeatherDisplay:10.37,2013-05-20 17:59:00,
2013-05-20 13:01:00,76.8,54.5,29.70,SW,222,8.4,11.5,46,0.00,CLR,,0.56,WeatherDisplay:10.37,2013-05-20 18:01:00,
2013-05-20 13:03:00,76.8,53.2,29.70,SW,220,9.0,13.8,44,0.00,CLR,,0.56,WeatherDisplay:10.37,2013-05-20 18:03:00,
2013-05-20 13:04:00,76.8,53.2,29.70,SW,236,7.6,12.7,44,0.00,CLR,,0.56,WeatherDisplay:10.37,2013-05-20 18:04:00,
2013-05-20 13:06:00,76.9,53.9,29.70,WSW,244,6.2,10.4,45,0.00,CLR,,0.56,WeatherDisplay:10.37,2013-05-20 18:06:00,
2013-05-20 13:08:00,76.9,52.7,29.70,SSW,198,7.0,10.4,43,0.00,CLR,,0.56,WeatherDisplay:10.37,2013-05-20 18:08:00,
2013-05-20 13:09:00,77.0,53.4,29.70,South,189,6.7,11.5,44,0.00,CLR,,0.56,WeatherDisplay:10.37,2013-05-20 18:09:00,
2013-05-20 13:11:00,77.0,54.0,29.70,SW,220,7.1,11.5,45,0.00,CLR,,0.56,WeatherDisplay:10.37,2013-05-20 18:11:00,
2013-05-20 13:13:00,77.0,53.4,29.70,SW,227,10.9,16.1,44,0.00,CLR,,0.56,WeatherDisplay:10.37,2013-05-20 18:13:00,
2013-05-20 13:14:00,77.1,53.5,29.70,SW,220,9.2,16.1,44,0.00,CLR,,0.56,WeatherDisplay:10.37,2013-05-20 18:14:00,
2013-05-20 13:17:00,77.2,54.2,29.70,South,185,5.8,9.2,45,0.00,CLR,,0.56,WeatherDisplay:10.37,2013-05-20 18:17:00,
2013-05-20 13:19:00,77.3,54.3,29.70,SSW,208,7.7,12.7,45,0.00,CLR,,0.56,WeatherDisplay:10.37,2013-05-20 18:19:00,
2013-05-20 13:20:00,77.3,53.7,29.70,WSW,253,10.3,12.7,44,0.00,CLR,,0.56,WeatherDisplay:10.37,2013-05-20 18:20:00,
2013-05-20 13:22:00,77.4,53.8,29.70,SSW,198,7.7,13.8,44,0.00,CLR,,0.56,WeatherDisplay:10.37,2013-05-20 18:22:00,
2013-05-20 13:24:00,77.4,53.8,29.70,SSW,198,7.8,12.7,44,0.00,CLR,,0.56,WeatherDisplay:10.37,2013-05-20 18:24:00,
2013-05-20 13:25:00,77.5,53.2,29.69,SSW,202,8.7,12.7,43,0.00,CLR,,0.56,WeatherDisplay:10.37,2013-05-20 18:25:00,
2013-05-20 13:27:00,77.7,54.0,29.69,SW,233,6.8,10.4,44,0.00,CLR,,0.56,WeatherDisplay:10.37,2013-05-20 18:27:00,
2013-05-20 13:29:00,77.7,54.0,29.70,WSW,240,8.4,12.7,44,0.00,CLR,,0.56,WeatherDisplay:10.37,2013-05-20 18:29:00,
2013-05-20 13:30:00,77.9,53.6,29.70,SW,230,7.8,13.8,43,0.00,CLR,,0.56,WeatherDisplay:10.37,2013-05-20 18:30:00,
2013-05-20 13:32:00,77.9,53.6,29.69,SSW,203,6.3,13.8,43,0.00,CLR,,0.56,WeatherDisplay:10.37,2013-05-20 18:32:00,
2013-05-20 13:34:00,78.0,54.3,29.69,SW,226,6.9,10.4,44,0.00,CLR,,0.56,WeatherDisplay:10.37,2013-05-20 18:34:00,
2013-05-20 13:35:00,78.0,54.3,29.69,SW,215,11.2,14.5,44,0.00,CLR,,0.56,WeatherDisplay:10.37,2013-05-20 18:35:00,
2013-05-20 13:36:00,78.0,53.0,29.69,SW,219,11.2,17.3,42,0.00,CLR,,0.56,WeatherDisplay:10.37,2013-05-20 18:36:00,
2013-05-20 13:37:00,78.0,53.0,29.69,SW,222,8.9,12.7,42,0.00,CLR,,0.56,WeatherDisplay:10.37,2013-05-20 18:37:00,
2013-05-20 13:39:00,78.0,53.0,29.69,SW,219,7.3,12.7,42,0.00,CLR,,0.56,WeatherDisplay:10.37,2013-05-20 18:39:00,
2013-05-20 13:40:00,78.1,53.8,29.69,WSW,246,4.8,12.7,43,0.00,CLR,,0.56,WeatherDisplay:10.37,2013-05-20 18:40:00,
2013-05-20 13:41:00,78.1,53.8,29.69,SE,143,5.5,11.5,43,0.00,CLR,,0.56,WeatherDisplay:10.37,2013-05-20 18:41:00,
2013-05-20 13:42:00,78.1,53.8,29.69,SSW,196,7.8,17.3,43,0.00,CLR,,0.56,WeatherDisplay:10.37,2013-05-20 18:42:00,
2013-05-20 13:44:00,78.3,54.0,29.69,SW,232,7.7,13.8,43,0.00,CLR,,0.56,WeatherDisplay:10.37,2013-05-20 18:44:00,
2013-05-20 13:45:00,78.3,54.0,29.69,SSW,209,4.2,8.1,43,0.00,CLR,,0.56,WeatherDisplay:10.37,2013-05-20 18:45:00,
2013-05-20 13:46:00,78.4,54.7,29.70,WSW,239,9.3,11.3,44,0.00,CLR,,0.56,WeatherDisplay:10.37,2013-05-20 18:46:00,
2013-05-20 13:48:00,78.5,53.5,29.70,SSW,203,9.2,15.0,42,0.00,CLR,,0.56,WeatherDisplay:10.37,2013-05-20 18:48:00,
2013-05-20 13:49:00,78.4,54.0,29.70,SW,226,6.8,12.0,43,0.00,CLR,,0.56,WeatherDisplay:10.37,2013-05-20 18:49:00,
2013-05-20 13:50:00,78.7,53.7,29.70,WSW,251,10.0,12.7,42,0.00,CLR,,0.56,WeatherDisplay:10.37,2013-05-20 18:50:00,
2013-05-20 13:51:00,78.7,53.7,29.70,SSW,212,8.9,15.0,42,0.00,CLR,,0.56,WeatherDisplay:10.37,2013-05-20 18:51:00,
2013-05-20 13:52:00,78.7,54.3,29.70,SSW,210,6.0,15.0,43,0.00,CLR,,0.56,WeatherDisplay:10.37,2013-05-20 18:52:00,
2013-05-20 13:53:00,78.5,53.5,29.70,SW,222,9.0,13.8,42,0.00,CLR,,0.56,WeatherDisplay:10.37,2013-05-20 18:53:00,
2013-05-20 13:54:00,78.7,53.0,29.70,WSW,241,9.7,13.8,41,0.00,CLR,,0.56,WeatherDisplay:10.37,2013-05-20 18:54:00,
2013-05-20 13:55:00,78.5,52.8,29.70,South,176,8.4,13.8,41,0.00,CLR,,0.56,WeatherDisplay:10.37,2013-05-20 18:55:00,
2013-05-20 13:56:00,78.5,54.1,29.70,SSW,205,6.0,11.5,43,0.00,CLR,,0.56,WeatherDisplay:10.37,2013-05-20 18:56:00,
2013-05-20 13:57:00,78.7,53.7,29.70,SSE,168,6.3,9.2,42,0.00,CLR,,0.56,WeatherDisplay:10.37,2013-05-20 18:57:00,
2013-05-20 13:58:00,78.7,54.3,29.70,SSW,212,8.4,11.5,43,0.00,CLR,,0.56,WeatherDisplay:10.37,2013-05-20 18:58:00,
2013-05-20 14:00:00,78.8,54.4,29.70,SSW,208,8.7,15.0,43,0.00,CLR,,0.56,WeatherDisplay:10.37,2013-05-20 19:00:00,
2013-05-20 14:01:00,78.8,53.8,29.70,SSW,199,10.8,17.0,42,0.00,CLR,,0.56,WeatherDisplay:10.37,2013-05-20 19:01:00,
2013-05-20 14:02:00,78.9,53.2,29.70,South,186,13.2,16.2,41,0.00,CLR,,0.56,WeatherDisplay:10.37,2013-05-20 19:02:00,
2013-05-20 14:03:00,78.9,52.5,29.70,SSW,213,12.3,17.3,40,0.00,CLR,,0.56,WeatherDisplay:10.37,2013-05-20 19:03:00,
2013-05-20 14:05:00,78.8,53.1,29.70,SSW,200,10.2,19.6,41,0.00,CLR,,0.56,WeatherDisplay:10.37,2013-05-20 19:05:00,
2013-05-20 14:06:00,78.9,53.9,29.70,WSW,241,9.1,15.0,42,0.00,CLR,,0.56,WeatherDisplay:10.37,2013-05-20 19:06:00,
2013-05-20 14:07:00,78.9,53.2,29.70,SSW,205,10.7,11.5,41,0.00,CLR,,0.56,WeatherDisplay:10.37,2013-05-20 19:07:00,
2013-05-20 14:08:00,78.8,53.1,29.70,SSW,205,8.6,17.3,41,0.00,CLR,,0.56,WeatherDisplay:10.37,2013-05-20 19:08:00,
2013-05-20 14:10:00,78.8,53.1,29.70,SW,224,8.3,15.0,41,0.00,CLR,,0.56,WeatherDisplay:10.37,2013-05-20 19:10:00,
2013-05-20 14:11:00,78.7,53.0,29.70,WSW,239,9.5,15.0,41,0.00,CLR,,0.56,WeatherDisplay:10.37,2013-05-20 19:11:00,
2013-05-20 14:12:00,78.8,52.4,29.70,SW,216,10.6,17.3,40,0.00,CLR,,0.56,WeatherDisplay:10.37,2013-05-20 19:12:00,
2013-05-20 14:13:00,78.7,53.0,29.70,SSW,199,10.0,18.4,41,0.00,CLR,,0.56,WeatherDisplay:10.37,2013-05-20 19:13:00,
2013-05-20 14:15:00,78.8,53.8,29.70,SW,217,7.2,10.4,42,0.00,CLR,,0.56,WeatherDisplay:10.37,2013-05-20 19:15:00,
2013-05-20 14:17:00,78.9,53.9,29.70,SSW,203,6.9,11.2,42,0.00,CLR,,0.56,WeatherDisplay:10.37,2013-05-20 19:17:00,
2013-05-20 14:18:00,78.9,53.9,29.70,SSW,205,10.3,18.4,42,0.00,CLR,,0.56,WeatherDisplay:10.37,2013-05-20 19:18:00,
2013-05-20 14:20:00,79.1,53.4,29.70,WSW,240,7.1,11.5,41,0.00,CLR,,0.56,WeatherDisplay:10.37,2013-05-20 19:20:00,
2013-05-20 14:22:00,79.1,54.7,29.70,South,179,8.8,16.1,43,0.00,CLR,,0.56,WeatherDisplay:10.37,2013-05-20 19:22:00,
2013-05-20 14:23:00,79.2,53.5,29.69,SSW,213,8.0,12.7,41,0.00,CLR,,0.56,WeatherDisplay:10.37,2013-05-20 19:23:00,
2013-05-20 14:25:00,79.3,53.6,29.69,SW,226,8.4,11.9,41,0.00,CLR,,0.56,WeatherDisplay:10.37,2013-05-20 19:25:00,
2013-05-20 14:27:00,79.3,53.6,29.69,SSW,206,8.2,11.5,41,0.00,CLR,,0.56,WeatherDisplay:10.37,2013-05-20 19:27:00,
2013-05-20 14:28:00,79.4,54.3,29.69,WSW,237,9.4,13.9,42,0.00,CLR,,0.56,WeatherDisplay:10.37,2013-05-20 19:28:00,
2013-05-20 14:29:00,79.5,54.4,29.69,South,174,8.1,13.8,42,0.00,CLR,,0.56,WeatherDisplay:10.37,2013-05-20 19:29:00,
2013-05-20 14:31:00,79.5,55.0,29.69,SSW,199,4.3,6.9,43,0.00,CLR,,0.56,WeatherDisplay:10.37,2013-05-20 19:31:00,
2013-05-20 14:32:00,79.6,55.1,29.69,SSW,213,7.1,12.1,43,0.00,CLR,,0.56,WeatherDisplay:10.37,2013-05-20 19:32:00,
2013-05-20 14:33:00,79.8,54.0,29.69,SW,217,8.7,15.0,41,0.00,CLR,,0.56,WeatherDisplay:10.37,2013-05-20 19:33:00,
2013-05-20 14:34:00,79.7,53.9,29.69,SW,215,9.1,13.8,41,0.00,CLR,,0.56,WeatherDisplay:10.37,2013-05-20 19:34:00,
2013-05-20 14:36:00,80.1,54.9,29.69,SSW,202,7.0,12.7,42,0.00,CLR,,0.56,WeatherDisplay:10.37,2013-05-20 19:36:00,
2013-05-20 14:37:00,80.0,53.5,29.69,South,185,6.5,12.7,40,0.00,CLR,,0.56,WeatherDisplay:10.37,2013-05-20 19:37:00,
2013-05-20 14:38:00,80.2,54.4,29.69,SW,220,9.1,11.1,41,0.00,CLR,,0.56,WeatherDisplay:10.37,2013-05-20 19:38:00,
2013-05-20 14:39:00,80.3,54.5,29.69,South,178,8.8,12.7,41,0.00,CLR,,0.56,WeatherDisplay:10.37,2013-05-20 19:39:00,
2013-05-20 14:41:00,80.3,54.5,29.69,SW,219,6.9,10.4,41,0.00,CLR,,0.56,WeatherDisplay:10.37,2013-05-20 19:41:00,
2013-05-20 14:42:00,80.4,53.9,29.69,SW,226,6.9,9.2,40,0.00,CLR,,0.56,WeatherDisplay:10.37,2013-05-20 19:42:00,
2013-05-20 14:44:00,80.4,52.5,29.69,WSW,251,9.1,12.7,38,0.00,CLR,,0.56,WeatherDisplay:10.37,2013-05-20 19:44:00,
2013-05-20 14:45:00,80.3,53.1,29.69,WSW,247,7.9,12.7,39,0.00,CLR,,0.56,WeatherDisplay:10.37,2013-05-20 19:45:00,
2013-05-20 14:46:00,80.4,53.9,29.69,WSW,240,6.5,11.5,40,0.00,CLR,,0.56,WeatherDisplay:10.37,2013-05-20 19:46:00,
2013-05-20 14:47:00,80.4,54.5,29.69,SSW,196,9.5,15.0,41,0.00,CLR,,0.56,WeatherDisplay:10.37,2013-05-20 19:47:00,
2013-05-20 14:49:00,80.4,53.9,29.69,SW,220,7.5,10.4,40,0.00,CLR,,0.56,WeatherDisplay:10.37,2013-05-20 19:49:00,
2013-05-20 14:50:00,80.4,54.5,29.69,SW,219,5.1,9.2,41,0.00,CLR,,0.56,WeatherDisplay:10.37,2013-05-20 19:50:00,
2013-05-20 14:51:00,80.3,54.5,29.69,SSW,202,8.8,10.4,41,0.00,CLR,,0.56,WeatherDisplay:10.37,2013-05-20 19:51:00,
2013-05-20 14:53:00,80.4,53.9,29.69,SSW,206,5.0,15.0,40,0.00,CLR,,0.56,WeatherDisplay:10.37,2013-05-20 19:53:00,
2013-05-20 14:54:00,80.6,54.7,29.69,SSW,202,7.0,9.8,41,0.00,CLR,,0.56,WeatherDisplay:10.37,2013-05-20 19:54:00,
2013-05-20 14:55:00,80.5,54.0,29.69,SW,227,8.4,12.7,40,0.00,CLR,,0.56,WeatherDisplay:10.37,2013-05-20 19:55:00,
2013-05-20 14:56:00,80.7,54.1,29.69,SW,230,7.7,11.5,40,0.00,CLR,,0.56,WeatherDisplay:10.37,2013-05-20 19:56:00,
2013-05-20 14:58:00,80.5,54.0,29.69,SSE,165,9.4,11.5,40,0.00,CLR,,0.56,WeatherDisplay:10.37,2013-05-20 19:58:00,
2013-05-20 14:59:00,80.6,54.0,29.69,SW,223,9.3,16.1,40,0.00,CLR,,0.56,WeatherDisplay:10.37,2013-05-20 19:59:00,
2013-05-20 15:00:00,80.6,54.0,29.69,WSW,251,6.3,13.8,40,0.00,CLR,,0.56,WeatherDisplay:10.37,2013-05-20 20:00:00,
2013-05-20 15:01:00,80.5,53.3,29.69,SW,224,9.5,10.7,39,0.00,CLR,,0.56,WeatherDisplay:10.37,2013-05-20 20:01:00,
2013-05-20 15:03:00,80.6,53.4,29.69,SW,223,7.0,10.4,39,0.00,CLR,,0.56,WeatherDisplay:10.37,2013-05-20 20:03:00,
2013-05-20 15:04:00,80.7,54.1,29.69,SW,232,7.1,10.4,40,0.00,CLR,,0.56,WeatherDisplay:10.37,2013-05-20 20:04:00,
2013-05-20 15:05:00,80.8,54.2,29.69,West,277,8.8,11.5,40,0.00,CLR,,0.56,WeatherDisplay:10.37,2013-05-20 20:05:00,
2013-05-20 15:06:00,80.9,54.3,29.69,West,261,5.9,15.0,40,0.00,CLR,,0.56,WeatherDisplay:10.37,2013-05-20 20:06:00,
2013-05-20 15:08:00,81.0,53.7,29.69,SSW,205,10.9,16.1,39,0.00,CLR,,0.56,WeatherDisplay:10.37,2013-05-20 20:08:00,
2013-05-20 15:09:00,81.0,53.7,29.69,SSW,206,9.8,16.1,39,0.00,CLR,,0.56,WeatherDisplay:10.37,2013-05-20 20:09:00,
2013-05-20 15:10:00,81.0,53.7,29.69,South,179,9.4,17.3,39,0.00,CLR,,0.56,WeatherDisplay:10.37,2013-05-20 20:10:00,
2013-05-20 15:11:00,81.0,53.0,29.69,SW,215,8.6,15.0,38,0.00,CLR,,0.56,WeatherDisplay:10.37,2013-05-20 20:11:00,
2013-05-20 15:12:00,81.1,53.8,29.69,SSW,198,6.5,15.0,39,0.00,CLR,,0.56,WeatherDisplay:10.37,2013-05-20 20:12:00,
2013-05-20 15:14:00,81.0,53.7,29.69,SW,230,10.6,15.0,39,0.00,CLR,,0.56,WeatherDisplay:10.37,2013-05-20 20:14:00,
2013-05-20 15:15:00,81.1,53.8,29.69,SW,236,6.4,12.3,39,0.00,CLR,,0.56,WeatherDisplay:10.37,2013-05-20 20:15:00,
2013-05-20 15:16:00,81.0,53.0,29.68,West,264,8.7,13.8,38,0.00,CLR,,0.56,WeatherDisplay:10.37,2013-05-20 20:16:00,
2013-05-20 15:17:00,81.0,53.0,29.68,South,171,8.8,17.3,38,0.00,CLR,,0.56,WeatherDisplay:10.37,2013-05-20 20:17:00,
2013-05-20 15:19:00,80.9,53.6,29.68,WSW,241,6.5,9.2,39,0.00,CLR,,0.56,WeatherDisplay:10.37,2013-05-20 20:19:00,
2013-05-20 15:20:00,81.1,54.5,29.69,WSW,244,5.8,13.4,40,0.00,CLR,,0.56,WeatherDisplay:10.37,2013-05-20 20:20:00,
2013-05-20 15:22:00,80.9,51.4,29.68,West,263,8.1,13.8,36,0.00,CLR,,0.56,WeatherDisplay:10.37,2013-05-20 20:22:00,
2013-05-20 15:24:00,80.8,52.8,29.68,SW,229,6.2,11.5,38,0.00,CLR,,0.56,WeatherDisplay:10.37,2013-05-20 20:24:00,
2013-05-20 15:25:00,80.8,52.8,29.68,SW,224,7.8,12.7,38,0.00,CLR,,0.56,WeatherDisplay:10.37,2013-05-20 20:25:00,
2013-05-20 15:27:00,80.7,52.0,29.68,SSW,213,11.4,14.0,37,0.00,CLR,,0.56,WeatherDisplay:10.37,2013-05-20 20:27:00,
2013-05-20 15:29:00,80.7,52.0,29.68,SW,216,5.8,11.5,37,0.00,CLR,,0.56,WeatherDisplay:10.37,2013-05-20 20:29:00,
2013-05-20 15:30:00,80.8,52.8,29.68,SW,224,7.3,15.6,38,0.00,CLR,,0.56,WeatherDisplay:10.37,2013-05-20 20:30:00,
2013-05-20 15:32:00,80.8,53.5,29.68,SSW,209,4.8,9.2,39,0.00,CLR,,0.56,WeatherDisplay:10.37,2013-05-20 20:32:00,
2013-05-20 15:34:00,80.9,53.6,29.68,SSW,209,5.7,9.6,39,0.00,CLR,,0.56,WeatherDisplay:10.37,2013-05-20 20:34:00,
2013-05-20 15:36:00,81.1,53.1,29.68,SSW,206,9.0,13.8,38,0.00,CLR,,0.56,WeatherDisplay:10.37,2013-05-20 20:36:00,
2013-05-20 15:37:00,81.2,53.9,29.68,SSW,208,5.7,10.4,39,0.00,CLR,,0.56,WeatherDisplay:10.37,2013-05-20 20:37:00,
2013-05-20 15:39:00,81.1,52.4,29.68,SSW,210,8.9,18.4,37,0.00,CLR,,0.56,WeatherDisplay:10.37,2013-05-20 20:39:00,
2013-05-20 15:41:00,81.2,51.7,29.68,SSW,198,10.3,17.3,36,0.00,CLR,,0.56,WeatherDisplay:10.37,2013-05-20 20:41:00,
2013-05-20 15:42:00,81.1,51.6,29.68,SW,223,9.6,17.2,36,0.00,CLR,,0.56,WeatherDisplay:10.37,2013-05-20 20:42:00,
2013-05-20 15:45:00,81.1,51.6,29.67,SSW,199,11.4,17.3,36,0.00,CLR,,0.56,WeatherDisplay:10.37,2013-05-20 20:45:00,
2013-05-20 15:46:00,80.9,51.4,29.67,SW,222,12.1,17.3,36,0.00,CLR,,0.56,WeatherDisplay:10.37,2013-05-20 20:46:00,
2013-05-20 15:47:00,81.0,51.5,29.67,SW,215,8.1,17.3,36,0.00,CLR,,0.56,WeatherDisplay:10.37,2013-05-20 20:47:00,
2013-05-20 15:48:00,81.1,51.6,29.67,West,268,7.8,12.7,36,0.00,CLR,,0.56,WeatherDisplay:10.37,2013-05-20 20:48:00,
2013-05-20 15:50:00,81.0,52.3,29.67,SSE,147,7.8,11.5,37,0.00,CLR,,0.56,WeatherDisplay:10.37,2013-05-20 20:50:00,
2013-05-20 15:51:00,80.9,52.9,29.66,South,188,6.3,11.5,38,0.00,CLR,,0.56,WeatherDisplay:10.37,2013-05-20 20:51:00,
2013-05-20 15:52:00,81.0,53.0,29.66,WSW,239,6.4,10.4,38,0.00,CLR,,0.56,WeatherDisplay:10.37,2013-05-20 20:52:00,
2013-05-20 15:53:00,80.9,52.2,29.67,SW,234,10.1,15.0,37,0.00,CLR,,0.56,WeatherDisplay:10.37,2013-05-20 20:53:00,
2013-05-20 15:55:00,81.2,53.2,29.66,SSW,196,8.0,10.4,38,0.00,CLR,,0.56,WeatherDisplay:10.37,2013-05-20 20:55:00,
2013-05-20 15:56:00,81.2,52.4,29.67,SSW,208,9.9,13.8,37,0.00,CLR,,0.56,WeatherDisplay:10.37,2013-05-20 20:56:00,
2013-05-20 15:57:00,81.2,52.4,29.67,SSW,198,10.0,15.0,37,0.00,CLR,,0.56,WeatherDisplay:10.37,2013-05-20 20:57:00,
2013-05-20 15:58:00,81.3,52.5,29.66,South,171,10.0,16.1,37,0.00,CLR,,0.56,WeatherDisplay:10.37,2013-05-20 20:58:00,
2013-05-20 16:00:00,81.4,53.4,29.66,SW,230,6.1,12.7,38,0.00,CLR,,0.56,WeatherDisplay:10.37,2013-05-20 21:00:00,
2013-05-20 16:02:00,81.4,53.4,29.67,SSW,210,9.2,16.3,38,0.00,CLR,,0.56,WeatherDisplay:10.37,2013-05-20 21:02:00,
2013-05-20 16:03:00,81.5,53.4,29.66,West,278,6.7,16.1,38,0.00,CLR,,0.56,WeatherDisplay:10.37,2013-05-20 21:03:00,
2013-05-20 16:05:00,81.4,51.9,29.67,SW,220,8.7,13.9,36,0.00,CLR,,0.56,WeatherDisplay:10.37,2013-05-20 21:05:00,
2013-05-20 16:07:00,81.6,52.1,29.66,WSW,237,8.1,12.7,36,0.00,CLR,,0.56,WeatherDisplay:10.37,2013-05-20 21:07:00,
2013-05-20 16:08:00,81.6,52.8,29.66,SSW,210,8.9,10.6,37,0.00,CLR,,0.56,WeatherDisplay:10.37,2013-05-20 21:08:00,
2013-05-20 16:11:00,81.6,52.1,29.66,SW,232,9.9,17.3,36,0.00,CLR,,0.56,WeatherDisplay:10.37,2013-05-20 21:11:00,
2013-05-20 16:12:00,81.7,51.4,29.66,SW,216,11.7,19.6,35,0.00,CLR,,0.56,WeatherDisplay:10.37,2013-05-20 21:12:00,
2013-05-20 16:13:00,81.7,52.1,29.66,SW,222,9.4,16.1,36,0.00,CLR,,0.56,WeatherDisplay:10.37,2013-05-20 21:13:00,
2013-05-20 16:16:00,81.7,52.1,29.66,SSW,205,8.9,15.0,36,0.00,CLR,,0.56,WeatherDisplay:10.37,2013-05-20 21:16:00,
2013-05-20 16:17:00,81.7,52.1,29.66,SSW,209,12.6,18.4,36,0.00,CLR,,0.56,WeatherDisplay:10.37,2013-05-20 21:17:00,
2013-05-20 16:18:00,81.6,51.3,29.66,West,265,9.5,13.8,35,0.00,CLR,,0.56,WeatherDisplay:10.37,2013-05-20 21:18:00,
2013-05-20 16:21:00,81.6,50.5,29.66,SW,219,9.4,19.6,34,0.00,CLR,,0.56,WeatherDisplay:10.37,2013-05-20 21:21:00,
2013-05-20 16:22:00,81.6,51.3,29.66,SSW,209,8.6,18.4,35,0.00,CLR,,0.56,WeatherDisplay:10.37,2013-05-20 21:22:00,
2013-05-20 16:23:00,81.6,51.3,29.66,SSW,210,8.6,12.7,35,0.00,CLR,,0.56,WeatherDisplay:10.37,2013-05-20 21:23:00,
2013-05-20 16:24:00,81.6,52.1,29.66,SW,226,7.1,9.4,36,0.00,CLR,,0.56,WeatherDisplay:10.37,2013-05-20 21:24:00,
2013-05-20 16:26:00,81.7,52.1,29.66,South,185,7.9,10.4,36,0.00,CLR,,0.56,WeatherDisplay:10.37,2013-05-20 21:26:00,
2013-05-20 16:27:00,81.8,53.0,29.66,SSW,210,10.8,14.9,37,0.00,CLR,,0.56,WeatherDisplay:10.37,2013-05-20 21:27:00,
2013-05-20 16:28:00,81.8,52.2,29.66,SSW,192,10.8,16.1,36,0.00,CLR,,0.56,WeatherDisplay:10.37,2013-05-20 21:28:00,
2013-05-20 16:29:00,81.8,52.2,29.66,SW,236,8.9,15.0,36,0.00,CLR,,0.56,WeatherDisplay:10.37,2013-05-20 21:29:00,
2013-05-20 16:31:00,81.8,52.2,29.66,SW,230,9.8,15.0,36,0.00,CLR,,0.56,WeatherDisplay:10.37,2013-05-20 21:31:00,
2013-05-20 16:32:00,81.8,52.2,29.66,WSW,239,10.8,15.0,36,0.00,CLR,,0.56,WeatherDisplay:10.37,2013-05-20 21:32:00,
2013-05-20 16:33:00,81.7,51.4,29.66,SSW,199,8.7,17.3,35,0.00,CLR,,0.56,WeatherDisplay:10.37,2013-05-20 21:33:00,
2013-05-20 16:34:00,81.7,52.1,29.66,SW,227,8.9,13.8,36,0.00,CLR,,0.56,WeatherDisplay:10.37,2013-05-20 21:34:00,
2013-05-20 16:36:00,81.6,51.3,29.66,South,186,9.0,17.3,35,0.00,CLR,,0.56,WeatherDisplay:10.37,2013-05-20 21:36:00,
2013-05-20 16:37:00,81.5,51.2,29.66,SW,216,10.1,17.3,35,0.00,CLR,,0.56,WeatherDisplay:10.37,2013-05-20 21:37:00,
2013-05-20 16:38:00,81.5,51.2,29.66,SW,226,8.3,15.0,35,0.00,CLR,,0.56,WeatherDisplay:10.37,2013-05-20 21:38:00,
2013-05-20 16:39:00,81.4,51.1,29.66,SSW,206,7.1,10.4,35,0.00,CLR,,0.56,WeatherDisplay:10.37,2013-05-20 21:39:00,
2013-05-20 16:41:00,81.3,51.0,29.66,SW,220,12.0,12.0,35,0.00,CLR,,0.56,WeatherDisplay:10.37,2013-05-20 21:41:00,
2013-05-20 16:42:00,81.2,49.4,29.66,WSW,248,9.9,17.3,33,0.00,CLR,,0.56,WeatherDisplay:10.37,2013-05-20 21:42:00,
2013-05-20 16:43:00,81.2,50.2,29.66,SW,230,9.6,17.3,34,0.00,CLR,,0.56,WeatherDisplay:10.37,2013-05-20 21:43:00,
2013-05-20 16:44:00,81.2,50.2,29.66,SW,216,9.7,13.8,34,0.00,CLR,,0.56,WeatherDisplay:10.37,2013-05-20 21:44:00,
2013-05-20 16:47:00,80.9,49.9,29.66,SW,219,9.1,16.1,34,0.00,CLR,,0.56,WeatherDisplay:10.37,2013-05-20 21:47:00,
2013-05-20 16:48:00,81.0,52.3,29.66,SW,227,6.9,10.4,37,0.00,CLR,,0.56,WeatherDisplay:10.37,2013-05-20 21:48:00,
2013-05-20 16:49:00,81.0,52.3,29.66,WNW,282,7.6,11.5,37,0.00,CLR,,0.56,WeatherDisplay:10.37,2013-05-20 21:49:00,
2013-05-20 16:50:00,81.1,51.6,29.66,SW,226,7.6,12.7,36,0.00,CLR,,0.56,WeatherDisplay:10.37,2013-05-20 21:50:00,
2013-05-20 16:52:00,81.1,51.6,29.66,WSW,256,8.0,13.8,36,0.00,CLR,,0.56,WeatherDisplay:10.37,2013-05-20 21:52:00,
2013-05-20 16:53:00,81.2,51.7,29.66,SSW,206,9.2,15.0,36,0.00,CLR,,0.56,WeatherDisplay:10.37,2013-05-20 21:53:00,
2013-05-20 16:54:00,81.2,51.7,29.66,SSW,196,7.4,12.2,36,0.00,CLR,,0.56,WeatherDisplay:10.37,2013-05-20 21:54:00,
2013-05-20 16:55:00,81.3,52.5,29.66,SSW,206,7.2,17.5,37,0.00,CLR,,0.56,WeatherDisplay:10.37,2013-05-20 21:55:00,
2013-05-20 16:57:00,81.4,51.9,29.66,SW,215,9.1,15.0,36,0.00,CLR,,0.56,WeatherDisplay:10.37,2013-05-20 21:57:00,
2013-05-20 16:58:00,81.4,51.9,29.66,SSW,202,8.3,13.8,36,0.00,CLR,,0.56,WeatherDisplay:10.37,2013-05-20 21:58:00,
2013-05-20 16:59:00,81.4,51.1,29.66,South,182,9.0,13.8,35,0.00,CLR,,0.56,WeatherDisplay:10.37,2013-05-20 21:59:00,
2013-05-20 17:00:00,81.4,51.1,29.66,SW,216,7.7,12.7,35,0.00,CLR,,0.56,WeatherDisplay:10.37,2013-05-20 22:00:00,
2013-05-20 17:02:00,81.4,50.3,29.66,SW,236,9.4,15.0,34,0.00,CLR,,0.56,WeatherDisplay:10.37,2013-05-20 22:02:00,
2013-05-20 17:03:00,81.4,50.3,29.66,SW,216,10.1,18.4,34,0.00,CLR,,0.56,WeatherDisplay:10.37,2013-05-20 22:03:00,
2013-05-20 17:05:00,81.3,51.0,29.66,SSE,161,9.4,13.8,35,0.00,CLR,,0.56,WeatherDisplay:10.37,2013-05-20 22:05:00,
2013-05-20 17:06:00,81.2,50.9,29.66,SSW,210,9.1,15.0,35,0.00,CLR,,0.56,WeatherDisplay:10.37,2013-05-20 22:06:00,
2013-05-20 17:08:00,81.0,50.8,29.66,WSW,251,8.0,16.1,35,0.00,CLR,,0.56,WeatherDisplay:10.37,2013-05-20 22:08:00,
2013-05-20 17:09:00,81.1,50.9,29.66,SW,215,7.5,12.7,35,0.00,CLR,,0.56,WeatherDisplay:10.37,2013-05-20 22:09:00,
2013-05-20 17:10:00,81.0,50.8,29.66,SW,215,10.1,19.6,35,0.00,CLR,,0.56,WeatherDisplay:10.37,2013-05-20 22:10:00,
2013-05-20 17:11:00,80.8,50.6,29.66,SW,233,10.2,19.6,35,0.00,CLR,,0.56,WeatherDisplay:10.37,2013-05-20 22:11:00,
2013-05-20 17:13:00,80.5,50.3,29.66,SW,215,9.2,19.2,35,0.00,CLR,,0.56,WeatherDisplay:10.37,2013-05-20 22:13:00,
2013-05-20 17:14:00,80.5,51.1,29.66,SW,222,11.1,19.6,36,0.00,CLR,,0.56,WeatherDisplay:10.37,2013-05-20 22:14:00,
2013-05-20 17:15:00,80.4,50.2,29.66,SW,234,9.4,13.8,35,0.00,CLR,,0.56,WeatherDisplay:10.37,2013-05-20 22:15:00,
2013-05-20 17:16:00,80.2,50.8,29.66,SSW,210,10.6,16.1,36,0.00,CLR,,0.56,WeatherDisplay:10.37,2013-05-20 22:16:00,
2013-05-20 17:18:00,80.0,50.6,29.66,SW,234,6.0,11.5,36,0.00,CLR,,0.56,WeatherDisplay:10.37,2013-05-20 22:18:00,
2013-05-20 17:19:00,79.9,51.3,29.66,WSW,244,5.0,10.4,37,0.00,CLR,,0.56,WeatherDisplay:10.37,2013-05-20 22:19:00,
2013-05-20 17:20:00,79.8,51.2,29.66,SW,236,7.0,12.7,37,0.00,CLR,,0.56,WeatherDisplay:10.37,2013-05-20 22:20:00,
2013-05-20 17:21:00,79.7,51.1,29.66,West,260,7.6,12.7,37,0.00,CLR,,0.56,WeatherDisplay:10.37,2013-05-20 22:21:00,
2013-05-20 17:24:00,79.4,51.6,29.66,South,172,7.0,12.7,38,0.00,CLR,,0.56,WeatherDisplay:10.37,2013-05-20 22:24:00,
2013-05-20 17:25:00,79.5,50.9,29.66,SW,229,8.5,12.7,37,0.00,CLR,,0.56,WeatherDisplay:10.37,2013-05-20 22:25:00,
2013-05-20 17:26:00,79.4,50.9,29.66,WSW,248,8.4,13.8,37,0.00,CLR,,0.56,WeatherDisplay:10.37,2013-05-20 22:26:00,
2013-05-20 17:27:00,79.5,51.7,29.66,SW,219,10.1,12.7,38,0.00,CLR,,0.56,WeatherDisplay:10.37,2013-05-20 22:27:00,
2013-05-20 17:29:00,79.3,50.8,29.66,SW,227,8.0,12.5,37,0.00,CLR,,0.56,WeatherDisplay:10.37,2013-05-20 22:29:00,
2013-05-20 17:30:00,79.3,51.5,29.66,SW,222,6.3,12.7,38,0.00,CLR,,0.56,WeatherDisplay:10.37,2013-05-20 22:30:00,
2013-05-20 17:31:00,79.3,51.5,29.66,SSW,206,6.8,9.6,38,0.00,CLR,,0.56,WeatherDisplay:10.37,2013-05-20 22:31:00,
2013-05-20 17:32:00,79.3,51.5,29.66,WSW,248,6.7,10.4,38,0.00,CLR,,0.56,WeatherDisplay:10.37,2013-05-20 22:32:00,
2013-05-20 17:34:00,79.1,51.3,29.66,West,268,7.5,11.5,38,0.00,CLR,,0.56,WeatherDisplay:10.37,2013-05-20 22:34:00,
2013-05-20 17:35:00,79.1,51.3,29.66,SW,229,5.6,10.4,38,0.00,CLR,,0.56,WeatherDisplay:10.37,2013-05-20 22:35:00,
2013-05-20 17:36:00,79.0,51.9,29.66,SW,226,6.7,13.8,39,0.00,CLR,,0.56,WeatherDisplay:10.37,2013-05-20 22:36:00,
2013-05-20 17:37:00,79.0,51.9,29.65,SSW,193,6.5,11.5,39,0.00,CLR,,0.56,WeatherDisplay:10.37,2013-05-20 22:37:00,
2013-05-20 17:39:00,78.9,52.5,29.65,SW,220,7.0,12.8,40,0.00,CLR,,0.56,WeatherDisplay:10.37,2013-05-20 22:39:00,
2013-05-20 17:40:00,78.9,51.8,29.65,West,260,7.0,12.7,39,0.00,CLR,,0.56,WeatherDisplay:10.37,2013-05-20 22:40:00,
2013-05-20 17:41:00,78.9,51.8,29.65,SW,223,4.9,8.1,39,0.00,CLR,,0.56,WeatherDisplay:10.37,2013-05-20 22:41:00,
2013-05-20 17:42:00,78.8,52.4,29.65,SW,216,7.9,11.5,40,0.00,CLR,,0.56,WeatherDisplay:10.37,2013-05-20 22:42:00,
2013-05-20 17:44:00,78.7,52.3,29.65,SSW,200,7.8,13.8,40,0.00,CLR,,0.56,WeatherDisplay:10.37,2013-05-20 22:44:00,
2013-05-20 17:45:00,78.7,52.3,29.65,WSW,240,6.2,13.8,40,0.00,CLR,,0.56,WeatherDisplay:10.37,2013-05-20 22:45:00,
2013-05-20 17:46:00,78.5,52.2,29.65,SSW,195,5.1,8.1,40,0.00,CLR,,0.56,WeatherDisplay:10.37,2013-05-20 22:46:00,
2013-05-20 17:47:00,78.4,52.7,29.65,SSW,198,6.2,9.2,41,0.00,CLR,,0.56,WeatherDisplay:10.37,2013-05-20 22:47:00,
2013-05-20 17:48:00,78.4,52.7,29.65,SW,217,6.5,9.2,41,0.00,CLR,,0.56,WeatherDisplay:10.37,2013-05-20 22:48:00,
2013-05-20 17:49:00,78.4,52.7,29.65,SSW,210,7.4,12.7,41,0.00,CLR,,0.56,WeatherDisplay:10.37,2013-05-20 22:49:00,
2013-05-20 17:50:00,78.4,52.7,29.65,SSW,199,7.0,9.2,41,0.00,CLR,,0.56,WeatherDisplay:10.37,2013-05-20 22:50:00,
2013-05-20 17:51:00,78.4,53.4,29.65,SW,224,5.0,9.2,42,0.00,CLR,,0.56,WeatherDisplay:10.37,2013-05-20 22:51:00,
2013-05-20 17:52:00,78.3,53.3,29.65,SW,220,5.5,8.1,42,0.00,CLR,,0.56,WeatherDisplay:10.37,2013-05-20 22:52:00,
2013-05-20 17:53:00,78.3,53.3,29.66,SW,223,5.9,8.1,42,0.00,CLR,,0.56,WeatherDisplay:10.37,2013-05-20 22:53:00,
2013-05-20 17:55:00,78.3,53.3,29.66,WSW,251,6.0,8.1,42,0.00,CLR,,0.56,WeatherDisplay:10.37,2013-05-20 22:55:00,
2013-05-20 17:57:00,78.2,53.2,29.65,SW,220,6.7,9.2,42,0.00,CLR,,0.56,WeatherDisplay:10.37,2013-05-20 22:57:00,
2013-05-20 17:58:00,78.2,53.2,29.65,SSW,202,7.4,10.4,42,0.00,CLR,,0.56,WeatherDisplay:10.37,2013-05-20 22:58:00,
2013-05-20 18:00:00,78.1,53.1,29.66,SSW,209,6.9,9.2,42,0.00,CLR,,0.56,WeatherDisplay:10.37,2013-05-20 23:00:00,
2013-05-20 18:01:00,78.1,53.1,29.66,SSW,205,6.3,9.2,42,0.00,CLR,,0.56,WeatherDisplay:10.37,2013-05-20 23:01:00,
2013-05-20 18:02:00,78.0,53.0,29.66,SSW,210,7.9,11.5,42,0.00,CLR,,0.56,WeatherDisplay:10.37,2013-05-20 23:02:00,
2013-05-20 18:03:00,78.0,53.7,29.66,SW,222,8.0,12.6,43,0.00,CLR,,0.56,WeatherDisplay:10.37,2013-05-20 23:03:00,
2013-05-20 18:04:00,77.9,53.0,29.66,SSW,202,8.5,12.7,42,0.00,CLR,,0.56,WeatherDisplay:10.37,2013-05-20 23:04:00,
2013-05-20 18:05:00,77.9,53.0,29.66,West,277,8.4,17.3,42,0.00,CLR,,0.56,WeatherDisplay:10.37,2013-05-20 23:05:00,
2013-05-20 18:06:00,77.8,52.9,29.66,SW,222,8.4,13.8,42,0.00,CLR,,0.56,WeatherDisplay:10.37,2013-05-20 23:06:00,
2013-05-20 18:07:00,77.8,52.9,29.66,SSW,213,7.3,10.4,42,0.00,CLR,,0.56,WeatherDisplay:10.37,2013-05-20 23:07:00,
2013-05-20 18:08:00,77.8,52.9,29.66,SW,223,9.4,11.5,42,0.00,CLR,,0.56,WeatherDisplay:10.37,2013-05-20 23:08:00,
2013-05-20 18:09:00,77.8,52.9,29.66,SSW,205,9.4,19.6,42,0.00,CLR,,0.56,WeatherDisplay:10.37,2013-05-20 23:09:00,
2013-05-20 18:10:00,77.8,52.9,29.66,SW,219,7.8,10.4,42,0.00,CLR,,0.56,WeatherDisplay:10.37,2013-05-20 23:10:00,
2013-05-20 18:11:00,77.7,52.8,29.66,SSW,213,8.2,12.7,42,0.00,CLR,,0.56,WeatherDisplay:10.37,2013-05-20 23:11:00,
2013-05-20 18:12:00,77.7,52.8,29.66,SSW,208,7.7,12.7,42,0.00,CLR,,0.56,WeatherDisplay:10.37,2013-05-20 23:12:00,
2013-05-20 18:13:00,77.4,52.5,29.66,SW,233,7.7,12.7,42,0.00,CLR,,0.56,WeatherDisplay:10.37,2013-05-20 23:13:00,
2013-05-20 18:14:00,77.4,51.9,29.66,SSW,213,8.6,12.7,41,0.00,CLR,,0.56,WeatherDisplay:10.37,2013-05-20 23:14:00,
2013-05-20 18:15:00,77.4,52.5,29.66,SW,219,6.8,15.0,42,0.00,CLR,,0.56,WeatherDisplay:10.37,2013-05-20 23:15:00,
2013-05-20 18:16:00,77.3,52.4,29.66,SW,226,6.4,10.4,42,0.00,CLR,,0.56,WeatherDisplay:10.37,2013-05-20 23:16:00,
2013-05-20 18:17:00,77.4,52.5,29.66,WSW,244,6.1,9.2,42,0.00,CLR,,0.56,WeatherDisplay:10.37,2013-05-20 23:17:00,
2013-05-20 18:18:00,77.4,52.5,29.66,SSW,208,5.6,9.2,42,0.00,CLR,,0.56,WeatherDisplay:10.37,2013-05-20 23:18:00,
2013-05-20 18:19:00,77.3,52.4,29.66,SSW,199,5.5,8.7,42,0.00,CLR,,0.56,WeatherDisplay:10.37,2013-05-20 23:19:00,
2013-05-20 18:21:00,77.2,52.3,29.66,SW,220,8.6,12.7,42,0.00,CLR,,0.56,WeatherDisplay:10.37,2013-05-20 23:21:00,
2013-05-20 18:23:00,77.3,52.4,29.66,SSW,208,5.0,8.3,42,0.00,CLR,,0.56,WeatherDisplay:10.37,2013-05-20 23:23:00,
2013-05-20 18:24:00,77.2,52.3,29.66,SW,222,8.2,10.4,42,0.00,CLR,,0.56,WeatherDisplay:10.37,2013-05-20 23:24:00,
2013-05-20 18:26:00,77.1,52.9,29.66,SW,227,5.9,9.2,43,0.00,CLR,,0.56,WeatherDisplay:10.37,2013-05-20 23:26:00,
2013-05-20 18:28:00,77.1,52.9,29.65,SSW,206,8.7,10.4,43,0.00,CLR,,0.56,WeatherDisplay:10.37,2013-05-20 23:28:00,
2013-05-20 18:29:00,77.0,52.8,29.65,SW,216,6.4,10.4,43,0.00,CLR,,0.56,WeatherDisplay:10.37,2013-05-20 23:29:00,
2013-05-20 18:31:00,77.0,52.8,29.66,NW,320,5.1,10.4,43,0.00,CLR,,0.56,WeatherDisplay:10.37,2013-05-20 23:31:00,
2013-05-20 18:33:00,77.0,52.1,29.65,SW,223,4.8,10.4,42,0.00,CLR,,0.56,WeatherDisplay:10.37,2013-05-20 23:33:00,
2013-05-20 18:34:00,76.9,52.7,29.65,SSW,200,5.1,7.0,43,0.00,CLR,,0.56,WeatherDisplay:10.37,2013-05-20 23:34:00,
2013-05-20 18:35:00,77.0,52.8,29.65,WSW,239,8.4,16.1,43,0.00,CLR,,0.56,WeatherDisplay:10.37,2013-05-20 23:35:00,
2013-05-20 18:36:00,76.9,52.1,29.65,SW,217,6.7,12.7,42,0.00,CLR,,0.56,WeatherDisplay:10.37,2013-05-20 23:36:00,
2013-05-20 18:37:00,76.9,52.1,29.65,SSW,212,6.4,9.2,42,0.00,CLR,,0.56,WeatherDisplay:10.37,2013-05-20 23:37:00,
2013-05-20 18:38:00,76.9,52.7,29.66,West,265,5.2,8.1,43,0.00,CLR,,0.56,WeatherDisplay:10.37,2013-05-20 23:38:00,
2013-05-20 18:39:00,76.9,52.7,29.66,SSE,150,4.5,8.1,43,0.00,CLR,,0.56,WeatherDisplay:10.37,2013-05-20 23:39:00,
2013-05-20 18:40:00,76.9,52.7,29.66,SW,215,6.4,10.4,43,0.00,CLR,,0.56,WeatherDisplay:10.37,2013-05-20 23:40:00,
2013-05-20 18:41:00,76.9,52.1,29.66,WSW,244,8.4,12.7,42,0.00,CLR,,0.56,WeatherDisplay:10.37,2013-05-20 23:41:00,
2013-05-20 18:42:00,76.8,52.0,29.66,SW,234,6.1,12.7,42,0.00,CLR,,0.56,WeatherDisplay:10.37,2013-05-20 23:42:00,
2013-05-20 18:43:00,76.9,52.7,29.66,SW,220,6.5,11.1,43,0.00,CLR,,0.56,WeatherDisplay:10.37,2013-05-20 23:43:00,
2013-05-20 18:44:00,76.8,52.0,29.66,SSW,213,7.2,11.5,42,0.00,CLR,,0.56,WeatherDisplay:10.37,2013-05-20 23:44:00,
2013-05-20 18:45:00,76.9,52.1,29.66,SW,224,7.4,10.4,42,0.00,CLR,,0.56,WeatherDisplay:10.37,2013-05-20 23:45:00,
2013-05-20 18:46:00,76.8,52.0,29.66,SW,229,6.2,10.4,42,0.00,CLR,,0.56,WeatherDisplay:10.37,2013-05-20 23:46:00,
2013-05-20 18:47:00,76.7,51.9,29.66,SW,232,6.0,9.2,42,0.00,CLR,,0.56,WeatherDisplay:10.37,2013-05-20 23:47:00,
2013-05-20 18:49:00,76.8,52.0,29.66,SSW,198,7.1,11.5,42,0.00,CLR,,0.56,WeatherDisplay:10.37,2013-05-20 23:49:00,
2013-05-20 18:50:00,76.8,52.0,29.66,SSW,208,6.9,10.7,42,0.00,CLR,,0.56,WeatherDisplay:10.37,2013-05-20 23:50:00,
2013-05-20 18:52:00,76.8,52.0,29.66,SSW,195,8.2,11.5,42,0.00,CLR,,0.56,WeatherDisplay:10.37,2013-05-20 23:52:00,
2013-05-20 18:54:00,76.7,51.9,29.66,SW,229,5.4,9.4,42,0.00,CLR,,0.56,WeatherDisplay:10.37,2013-05-20 23:54:00,
2013-05-20 18:55:00,76.7,51.9,29.66,SW,215,6.7,9.2,42,0.00,CLR,,0.56,WeatherDisplay:10.37,2013-05-20 23:55:00,
2013-05-20 18:57:00,76.7,51.9,29.66,SW,236,6.5,12.7,42,0.00,CLR,,0.56,WeatherDisplay:10.37,2013-05-20 23:57:00,
2013-05-20 18:59:00,76.5,52.3,29.66,West,261,4.0,6.9,43,0.00,CLR,,0.56,WeatherDisplay:10.37,2013-05-20 23:59:00,
2013-05-20 19:01:00,76.4,52.2,29.66,SW,220,5.6,8.1,43,0.00,CLR,,0.56,WeatherDisplay:10.37,2013-05-21 00:01:00,
2013-05-20 19:02:00,76.4,52.2,29.66,SW,227,5.7,9.2,43,0.00,CLR,,0.56,WeatherDisplay:10.37,2013-05-21 00:02:00,
2013-05-20 19:04:00,76.3,52.2,29.66,SW,233,7.2,10.4,43,0.00,CLR,,0.56,WeatherDisplay:10.37,2013-05-21 00:04:00,
2013-05-20 19:05:00,76.3,52.2,29.66,SW,229,5.7,9.2,43,0.00,CLR,,0.56,WeatherDisplay:10.37,2013-05-21 00:05:00,
2013-05-20 19:06:00,76.3,52.2,29.66,SW,227,4.3,5.8,43,0.00,CLR,,0.56,WeatherDisplay:10.37,2013-05-21 00:06:00,
2013-05-20 19:08:00,76.2,52.1,29.66,WSW,237,4.9,8.1,43,0.00,CLR,,0.56,WeatherDisplay:10.37,2013-05-21 00:08:00,
2013-05-20 19:09:00,76.2,52.7,29.66,SW,234,4.4,6.9,44,0.00,CLR,,0.56,WeatherDisplay:10.37,2013-05-21 00:09:00,
2013-05-20 19:10:00,76.1,52.6,29.66,SSW,203,4.6,6.9,44,0.00,CLR,,0.56,WeatherDisplay:10.37,2013-05-21 00:10:00,
2013-05-20 19:11:00,76.1,52.6,29.66,SSW,206,4.9,8.8,44,0.00,CLR,,0.56,WeatherDisplay:10.37,2013-05-21 00:11:00,
2013-05-20 19:13:00,75.9,52.4,29.66,SW,236,4.4,6.9,44,0.00,CLR,,0.56,WeatherDisplay:10.37,2013-05-21 00:13:00,
2013-05-20 19:14:00,75.9,52.4,29.66,WSW,250,2.6,5.8,44,0.00,CLR,,0.56,WeatherDisplay:10.37,2013-05-21 00:14:00,
2013-05-20 19:15:00,75.9,52.4,29.66,WSW,251,3.6,5.8,44,0.00,CLR,,0.56,WeatherDisplay:10.37,2013-05-21 00:15:00,
2013-05-20 19:16:00,75.9,52.4,29.66,SW,217,4.4,5.2,44,0.00,CLR,,0.56,WeatherDisplay:10.37,2013-05-21 00:16:00,
2013-05-20 19:18:00,75.7,52.8,29.66,SW,236,6.3,8.1,45,0.00,CLR,,0.56,WeatherDisplay:10.37,2013-05-21 00:18:00,
2013-05-20 19:19:00,75.7,52.2,29.66,WSW,247,5.8,11.5,44,0.00,CLR,,0.56,WeatherDisplay:10.37,2013-05-21 00:19:00,
2013-05-20 19:20:00,75.5,52.1,29.66,SSW,213,6.1,9.2,44,0.00,CLR,,0.56,WeatherDisplay:10.37,2013-05-21 00:20:00,
2013-05-20 19:21:00,75.4,52.6,29.66,WSW,250,5.7,9.2,45,0.00,CLR,,0.56,WeatherDisplay:10.37,2013-05-21 00:21:00,
2013-05-20 19:24:00,75.3,51.9,29.66,WSW,240,4.9,6.9,44,0.00,CLR,,0.56,WeatherDisplay:10.37,2013-05-21 00:24:00,
2013-05-20 19:25:00,75.3,51.9,29.66,SSW,203,5.4,8.1,44,0.00,CLR,,0.56,WeatherDisplay:10.37,2013-05-21 00:25:00,
2013-05-20 19:26:00,75.2,52.4,29.66,SW,230,6.2,6.9,45,0.00,CLR,,0.56,WeatherDisplay:10.37,2013-05-21 00:26:00,
2013-05-20 19:29:00,75.0,52.2,29.67,SW,220,4.1,6.3,45,0.00,CLR,,0.56,WeatherDisplay:10.37,2013-05-21 00:29:00,
2013-05-20 19:30:00,75.0,52.2,29.66,WSW,248,5.3,8.1,45,0.00,CLR,,0.56,WeatherDisplay:10.37,2013-05-21 00:30:00,
2013-05-20 19:31:00,74.9,52.1,29.66,SW,217,3.4,8.1,45,0.00,CLR,,0.56,WeatherDisplay:10.37,2013-05-21 00:31:00,
2013-05-20 19:34:00,74.8,52.6,29.67,WSW,246,3.3,5.8,46,0.00,CLR,,0.56,WeatherDisplay:10.37,2013-05-21 00:34:00,
2013-05-20 19:35:00,74.7,52.5,29.67,SSW,210,4.9,6.7,46,0.00,CLR,,0.56,WeatherDisplay:10.37,2013-05-21 00:35:00,
2013-05-20 19:37:00,74.6,52.4,29.67,SW,226,4.4,8.1,46,0.00,CLR,,0.56,WeatherDisplay:10.37,2013-05-21 00:37:00,
2013-05-20 19:39:00,74.4,52.9,29.67,SW,229,4.2,5.8,47,0.00,CLR,,0.56,WeatherDisplay:10.37,2013-05-21 00:39:00,
2013-05-20 19:40:00,74.4,52.9,29.67,SSW,213,4.3,5.8,47,0.00,CLR,,0.56,WeatherDisplay:10.37,2013-05-21 00:40:00,
2013-05-20 19:42:00,74.3,52.8,29.67,SW,223,5.7,10.3,47,0.00,CLR,,0.56,WeatherDisplay:10.37,2013-05-21 00:42:00,
2013-05-20 19:44:00,74.1,52.6,29.67,SW,232,4.7,8.1,47,0.00,CLR,,0.56,WeatherDisplay:10.37,2013-05-21 00:44:00,
2013-05-20 19:45:00,74.1,52.6,29.67,WSW,240,4.4,7.6,47,0.00,CLR,,0.56,WeatherDisplay:10.37,2013-05-21 00:45:00,
2013-05-20 19:47:00,73.8,52.3,29.67,SW,217,4.2,10.4,47,0.00,CLR,,0.56,WeatherDisplay:10.37,2013-05-21 00:47:00,
2013-05-20 19:49:00,73.8,52.3,29.67,SW,219,5.2,8.1,47,0.00,CLR,,0.56,WeatherDisplay:10.37,2013-05-21 00:49:00,
2013-05-20 19:50:00,73.8,52.3,29.67,SSW,199,6.2,10.4,47,0.00,CLR,,0.56,WeatherDisplay:10.37,2013-05-21 00:50:00,
2013-05-20 19:52:00,73.8,52.3,29.67,SW,219,7.6,11.5,47,0.00,CLR,,0.56,WeatherDisplay:10.37,2013-05-21 00:52:00,
2013-05-20 19:55:00,73.6,52.1,29.67,SSW,198,5.8,9.2,47,0.00,CLR,,0.56,WeatherDisplay:10.37,2013-05-21 00:55:00,
2013-05-20 19:57:00,73.5,52.6,29.67,SSW,205,5.4,5.8,48,0.00,CLR,,0.56,WeatherDisplay:10.37,2013-05-21 00:57:00,
2013-05-20 20:00:00,73.3,52.4,29.67,WSW,243,4.9,6.9,48,0.00,CLR,,0.56,WeatherDisplay:10.37,2013-05-21 01:00:00,
2013-05-20 20:01:00,73.2,52.3,29.67,WSW,239,4.9,6.9,48,0.00,CLR,,0.56,WeatherDisplay:10.37,2013-05-21 01:01:00,
2013-05-20 20:03:00,73.2,52.3,29.67,WSW,253,4.4,8.1,48,0.00,CLR,,0.56,WeatherDisplay:10.37,2013-05-21 01:03:00,
2013-05-20 20:05:00,73.0,52.1,29.67,SW,222,3.6,5.8,48,0.00,CLR,,0.56,WeatherDisplay:10.37,2013-05-21 01:05:00,
2013-05-20 20:06:00,73.0,52.1,29.67,SW,220,6.1,7.1,48,0.00,CLR,,0.56,WeatherDisplay:10.37,2013-05-21 01:06:00,
2013-05-20 20:08:00,72.9,52.1,29.67,SSW,205,5.6,9.2,48,0.00,CLR,,0.56,WeatherDisplay:10.37,2013-05-21 01:08:00,
2013-05-20 20:10:00,72.8,52.5,29.67,South,184,4.9,6.5,49,0.00,CLR,,0.56,WeatherDisplay:10.37,2013-05-21 01:10:00,
2013-05-20 20:11:00,72.7,52.4,29.67,SW,230,6.1,9.2,49,0.00,CLR,,0.56,WeatherDisplay:10.37,2013-05-21 01:11:00,
2013-05-20 20:13:00,72.4,52.2,29.67,SW,215,4.0,8.8,49,0.00,CLR,,0.56,WeatherDisplay:10.37,2013-05-21 01:13:00,
2013-05-20 20:15:00,72.5,52.2,29.67,SW,227,4.6,9.2,49,0.00,CLR,,0.56,WeatherDisplay:10.37,2013-05-21 01:15:00,
2013-05-20 20:16:00,72.5,52.2,29.67,SSW,206,4.7,5.8,49,0.00,CLR,,0.56,WeatherDisplay:10.37,2013-05-21 01:16:00,
2013-05-20 20:18:00,72.4,52.2,29.66,SSW,212,4.1,5.8,49,0.00,CLR,,0.56,WeatherDisplay:10.37,2013-05-21 01:18:00,
2013-05-20 20:20:00,72.3,52.1,29.66,WSW,239,1.6,5.8,49,0.00,CLR,,0.56,WeatherDisplay:10.37,2013-05-21 01:20:00,
2013-05-20 20:21:00,72.3,52.1,29.66,SW,232,1.4,2.6,49,0.00,CLR,,0.56,WeatherDisplay:10.37,2013-05-21 01:21:00,
2013-05-20 20:22:00,72.2,52.0,29.66,WSW,258,2.7,2.7,49,0.00,CLR,,0.56,WeatherDisplay:10.37,2013-05-21 01:22:00,
2013-05-20 20:23:00,72.1,52.4,29.66,South,186,3.1,5.8,50,0.00,CLR,,0.56,WeatherDisplay:10.37,2013-05-21 01:23:00,
2013-05-20 20:25:00,71.9,52.2,29.65,SW,226,3.5,6.0,50,0.00,CLR,,0.56,WeatherDisplay:10.37,2013-05-21 01:25:00,
2013-05-20 20:26:00,72.0,52.3,29.65,SW,216,5.1,6.9,50,0.00,CLR,,0.56,WeatherDisplay:10.37,2013-05-21 01:26:00,
2013-05-20 20:27:00,71.8,52.2,29.65,South,182,2.4,5.8,50,0.00,CLR,,0.56,WeatherDisplay:10.37,2013-05-21 01:27:00,
2013-05-20 20:29:00,71.8,52.2,29.65,SW,219,2.5,4.6,50,0.00,CLR,,0.56,WeatherDisplay:10.37,2013-05-21 01:29:00,
2013-05-20 20:30:00,71.7,52.1,29.65,South,176,2.1,3.7,50,0.00,CLR,,0.56,WeatherDisplay:10.37,2013-05-21 01:30:00,
2013-05-20 20:31:00,71.7,52.1,29.65,SSW,210,2.5,3.5,50,0.00,CLR,,0.56,WeatherDisplay:10.37,2013-05-21 01:31:00,
2013-05-20 20:32:00,71.7,52.1,29.65,SE,131,2.0,3.5,50,0.00,CLR,,0.56,WeatherDisplay:10.37,2013-05-21 01:32:00,
2013-05-20 20:34:00,71.4,51.8,29.65,WSW,244,1.2,4.7,50,0.00,CLR,,0.56,WeatherDisplay:10.37,2013-05-21 01:34:00,
2013-05-20 20:35:00,71.4,52.3,29.65,SW,223,2.1,5.8,51,0.00,CLR,,0.56,WeatherDisplay:10.37,2013-05-21 01:35:00,
2013-05-20 20:36:00,71.4,52.3,29.65,SSW,208,2.0,4.6,51,0.00,CLR,,0.56,WeatherDisplay:10.37,2013-05-21 01:36:00,
2013-05-20 20:37:00,71.3,52.2,29.65,SSE,164,1.7,3.5,51,0.00,CLR,,0.56,WeatherDisplay:10.37,2013-05-21 01:37:00,
2013-05-20 20:39:00,71.0,52.0,29.65,SSW,213,2.5,3.5,51,0.00,CLR,,0.56,WeatherDisplay:10.37,2013-05-21 01:39:00,
2013-05-20 20:40:00,71.0,52.0,29.65,SSW,208,2.7,6.9,51,0.00,CLR,,0.56,WeatherDisplay:10.37,2013-05-21 01:40:00,
2013-05-20 20:41:00,70.9,51.9,29.65,SW,232,2.2,4.6,51,0.00,CLR,,0.56,WeatherDisplay:10.37,2013-05-21 01:41:00,
2013-05-20 20:42:00,71.0,52.0,29.65,SW,217,2.1,4.2,51,0.00,CLR,,0.56,WeatherDisplay:10.37,2013-05-21 01:42:00,
2013-05-20 20:43:00,70.8,51.8,29.65,SW,223,2.6,4.6,51,0.00,CLR,,0.56,WeatherDisplay:10.37,2013-05-21 01:43:00,
2013-05-20 20:44:00,70.9,51.9,29.65,SSW,212,2.2,4.6,51,0.00,CLR,,0.56,WeatherDisplay:10.37,2013-05-21 01:44:00,
2013-05-20 20:46:00,70.8,51.8,29.65,SSW,193,1.4,2.3,51,0.00,CLR,,0.56,WeatherDisplay:10.37,2013-05-21 01:46:00,
2013-05-20 20:47:00,70.5,51.5,29.65,WSW,246,4.2,5.8,51,0.00,CLR,,0.56,WeatherDisplay:10.37,2013-05-21 01:47:00,
2013-05-20 20:48:00,70.6,51.6,29.65,SSW,195,2.8,5.8,51,0.00,CLR,,0.56,WeatherDisplay:10.37,2013-05-21 01:48:00,
2013-05-20 20:49:00,70.5,52.0,29.65,West,278,4.0,4.6,52,0.00,CLR,,0.56,WeatherDisplay:10.37,2013-05-21 01:49:00,
2013-05-20 20:51:00,70.5,52.0,29.65,SSW,213,1.4,3.5,52,0.00,CLR,,0.56,WeatherDisplay:10.37,2013-05-21 01:51:00,
2013-05-20 20:52:00,70.5,52.0,29.65,SW,224,2.9,3.5,52,0.00,CLR,,0.56,WeatherDisplay:10.37,2013-05-21 01:52:00,
2013-05-20 20:53:00,70.5,52.0,29.65,SW,226,2.8,4.6,52,0.00,CLR,,0.56,WeatherDisplay:10.37,2013-05-21 01:53:00,
2013-05-20 20:55:00,70.4,51.9,29.65,SSE,147,0.5,2.3,52,0.00,CLR,,0.56,WeatherDisplay:10.37,2013-05-21 01:55:00,
2013-05-20 20:56:00,70.3,51.8,29.65,SSE,147,0.0,0.0,52,0.00,CLR,,0.56,WeatherDisplay:10.37,2013-05-21 01:56:00,
2013-05-20 20:57:00,70.2,51.7,29.65,SSE,147,0.0,0.0,52,0.00,CLR,,0.56,WeatherDisplay:10.37,2013-05-21 01:57:00,
2013-05-20 20:58:00,70.2,51.7,29.65,SSE,147,0.0,0.0,52,0.00,CLR,,0.56,WeatherDisplay:10.37,2013-05-21 01:58:00,
2013-05-20 21:00:00,70.1,51.7,29.65,South,175,1.4,4.6,52,0.00,CLR,,0.56,WeatherDisplay:10.37,2013-05-21 02:00:00,
2013-05-20 21:01:00,70.1,51.7,29.65,South,175,0.0,1.1,52,0.00,CLR,,0.56,WeatherDisplay:10.37,2013-05-21 02:01:00,
2013-05-20 21:03:00,70.0,51.6,29.65,South,175,0.0,0.0,52,0.00,CLR,,0.56,WeatherDisplay:10.37,2013-05-21 02:03:00,
2013-05-20 21:05:00,69.8,51.9,29.65,South,175,0.0,0.0,53,0.00,CLR,,0.56,WeatherDisplay:10.37,2013-05-21 02:05:00,
2013-05-20 21:06:00,69.7,51.8,29.65,South,175,0.0,0.0,53,0.00,CLR,,0.56,WeatherDisplay:10.37,2013-05-21 02:06:00,
2013-05-20 21:07:00,69.7,51.8,29.65,SW,222,0.3,2.1,53,0.00,CLR,,0.56,WeatherDisplay:10.37,2013-05-21 02:07:00,
2013-05-20 21:08:00,69.6,51.7,29.65,South,191,0.8,2.3,53,0.00,CLR,,0.56,WeatherDisplay:10.37,2013-05-21 02:08:00,
2013-05-20 21:09:00,69.6,51.7,29.66,SSE,161,0.2,1.1,53,0.00,CLR,,0.56,WeatherDisplay:10.37,2013-05-21 02:09:00,
2013-05-20 21:10:00,69.6,51.7,29.66,SSE,161,0.0,0.0,53,0.00,CLR,,0.56,WeatherDisplay:10.37,2013-05-21 02:10:00,
2013-05-20 21:11:00,69.4,51.5,29.66,SSE,161,0.0,0.0,53,0.00,CLR,,0.56,WeatherDisplay:10.37,2013-05-21 02:11:00,
2013-05-20 21:13:00,69.3,51.9,29.66,SSE,161,0.0,0.0,54,0.00,CLR,,0.56,WeatherDisplay:10.37,2013-05-21 02:13:00,
2013-05-20 21:14:00,69.3,51.9,29.66,SSE,161,0.0,0.0,54,0.00,CLR,,0.56,WeatherDisplay:10.37,2013-05-21 02:14:00,
2013-05-20 21:16:00,69.0,51.7,29.66,SSE,161,0.0,0.0,54,0.00,CLR,,0.56,WeatherDisplay:10.37,2013-05-21 02:16:00,
2013-05-20 21:18:00,68.9,51.6,29.67,SSE,161,0.0,0.0,54,0.00,CLR,,0.56,WeatherDisplay:10.37,2013-05-21 02:18:00,
2013-05-20 21:19:00,68.8,51.5,29.67,SSE,161,0.0,0.0,54,0.00,CLR,,0.56,WeatherDisplay:10.37,2013-05-21 02:19:00,
2013-05-20 21:21:00,68.7,51.4,29.67,SSE,161,0.0,0.0,54,0.00,CLR,,0.56,WeatherDisplay:10.37,2013-05-21 02:21:00,
2013-05-20 21:23:00,68.6,51.8,29.67,SSE,161,0.0,0.0,55,0.00,CLR,,0.56,WeatherDisplay:10.37,2013-05-21 02:23:00,
2013-05-20 21:24:00,68.5,51.7,29.67,SSE,161,0.0,0.0,55,0.00,CLR,,0.56,WeatherDisplay:10.37,2013-05-21 02:24:00,
2013-05-20 21:26:00,68.5,51.7,29.67,SSE,161,0.0,0.0,55,0.00,CLR,,0.56,WeatherDisplay:10.37,2013-05-21 02:26:00,
2013-05-20 21:27:00,68.5,51.7,29.67,SSE,161,0.0,0.0,55,0.00,CLR,,0.56,WeatherDisplay:10.37,2013-05-21 02:27:00,
2013-05-20 21:28:00,68.4,51.6,29.67,SSE,161,0.0,0.0,55,0.00,CLR,,0.56,WeatherDisplay:10.37,2013-05-21 02:28:00,
2013-05-20 21:29:00,68.2,51.4,29.67,SSE,161,0.0,0.0,55,0.00,CLR,,0.56,WeatherDisplay:10.37,2013-05-21 02:29:00,
2013-05-20 21:31:00,68.1,51.8,29.68,SE,133,0.6,2.3,56,0.00,CLR,,0.56,WeatherDisplay:10.37,2013-05-21 02:31:00,
2013-05-20 21:32:00,68.1,51.8,29.67,SE,133,0.2,1.1,56,0.00,CLR,,0.56,WeatherDisplay:10.37,2013-05-21 02:32:00,
2013-05-20 21:33:00,68.1,51.8,29.67,SE,133,0.0,0.0,56,0.00,CLR,,0.56,WeatherDisplay:10.37,2013-05-21 02:33:00,
2013-05-20 21:34:00,68.1,51.8,29.67,SSE,154,0.4,1.2,56,0.00,CLR,,0.56,WeatherDisplay:10.37,2013-05-21 02:34:00,
2013-05-20 21:35:00,68.0,51.7,29.67,SSE,164,0.7,2.3,56,0.00,CLR,,0.56,WeatherDisplay:10.37,2013-05-21 02:35:00,
2013-05-20 21:37:00,68.0,52.2,29.68,SE,133,2.1,3.7,57,0.00,CLR,,0.56,WeatherDisplay:10.37,2013-05-21 02:37:00,
2013-05-20 21:38:00,67.9,52.1,29.68,SE,138,1.2,3.5,57,0.00,CLR,,0.56,WeatherDisplay:10.37,2013-05-21 02:38:00,
2013-05-20 21:39:00,67.9,52.1,29.68,SE,137,1.3,2.3,57,0.00,CLR,,0.56,WeatherDisplay:10.37,2013-05-21 02:39:00,
2013-05-20 21:40:00,67.8,52.0,29.68,SE,144,0.5,2.4,57,0.00,CLR,,0.56,WeatherDisplay:10.37,2013-05-21 02:40:00,
2013-05-20 21:42:00,67.8,52.0,29.67,SSE,152,1.4,2.3,57,0.00,CLR,,0.56,WeatherDisplay:10.37,2013-05-21 02:42:00,
2013-05-20 21:43:00,67.9,52.1,29.67,SSE,152,0.6,2.3,57,0.00,CLR,,0.56,WeatherDisplay:10.37,2013-05-21 02:43:00,
2013-05-20 21:44:00,67.9,52.1,29.67,SE,143,0.7,2.8,57,0.00,CLR,,0.56,WeatherDisplay:10.37,2013-05-21 02:44:00,
2013-05-20 21:46:00,67.8,52.0,29.67,SE,126,0.4,1.1,57,0.00,CLR,,0.56,WeatherDisplay:10.37,2013-05-21 02:46:00,
2013-05-20 21:47:00,67.8,52.5,29.67,ESE,117,1.8,3.5,58,0.00,CLR,,0.56,WeatherDisplay:10.37,2013-05-21 02:47:00,
2013-05-20 21:48:00,67.9,52.6,29.67,ESE,120,0.1,1.1,58,0.00,CLR,,0.56,WeatherDisplay:10.37,2013-05-21 02:48:00,
2013-05-20 21:49:00,67.9,52.6,29.67,ESE,117,0.4,1.1,58,0.00,CLR,,0.56,WeatherDisplay:10.37,2013-05-21 02:49:00,
2013-05-20 21:51:00,67.8,52.0,29.67,ESE,121,1.4,2.3,57,0.00,CLR,,0.56,WeatherDisplay:10.37,2013-05-21 02:51:00,
2013-05-20 21:52:00,67.9,52.1,29.66,SE,141,1.0,2.3,57,0.00,CLR,,0.56,WeatherDisplay:10.37,2013-05-21 02:52:00,
2013-05-20 21:53:00,67.9,52.1,29.66,ESE,110,0.8,1.1,57,0.00,CLR,,0.56,WeatherDisplay:10.37,2013-05-21 02:53:00,
2013-05-20 21:54:00,67.7,51.9,29.66,ESE,112,0.6,1.1,57,0.00,CLR,,0.56,WeatherDisplay:10.37,2013-05-21 02:54:00,
2013-05-20 21:56:00,68.0,52.7,29.66,ENE,78,0.0,0.0,58,0.00,CLR,,0.56,WeatherDisplay:10.37,2013-05-21 02:56:00,
2013-05-20 21:57:00,67.9,52.6,29.66,ENE,65,1.3,2.3,58,0.00,CLR,,0.56,WeatherDisplay:10.37,2013-05-21 02:57:00,
2013-05-20 21:58:00,68.0,52.7,29.65,East,79,0.9,2.3,58,0.00,CLR,,0.56,WeatherDisplay:10.37,2013-05-21 02:58:00,
2013-05-20 21:59:00,67.9,52.6,29.66,East,92,0.6,1.1,58,0.00,CLR,,0.56,WeatherDisplay:10.37,2013-05-21 02:59:00,
2013-05-20 22:01:00,67.8,52.5,29.66,SE,128,1.7,2.2,58,0.00,CLR,,0.56,WeatherDisplay:10.37,2013-05-21 03:01:00,
2013-05-20 22:03:00,67.9,52.6,29.66,SE,141,1.2,2.3,58,0.00,CLR,,0.56,WeatherDisplay:10.37,2013-05-21 03:03:00,
2013-05-20 22:04:00,68.0,52.7,29.65,ESE,123,0.7,1.1,58,0.00,CLR,,0.56,WeatherDisplay:10.37,2013-05-21 03:04:00,
2013-05-20 22:07:00,68.0,53.1,29.65,ESE,123,0.0,0.0,59,0.00,CLR,,0.56,WeatherDisplay:10.37,2013-05-21 03:07:00,
2013-05-20 22:08:00,68.0,53.1,29.65,ESE,123,0.0,0.0,59,0.00,CLR,,0.56,WeatherDisplay:10.37,2013-05-21 03:08:00,
2013-05-20 22:09:00,67.8,52.9,29.65,ESE,123,0.0,0.0,59,0.00,CLR,,0.56,WeatherDisplay:10.37,2013-05-21 03:09:00,
2013-05-20 22:10:00,68.1,53.2,29.65,ESE,123,0.0,0.0,59,0.00,CLR,,0.56,WeatherDisplay:10.37,2013-05-21 03:10:00,
2013-05-20 22:12:00,67.9,53.0,29.65,ESE,123,0.0,0.0,59,0.00,CLR,,0.56,WeatherDisplay:10.37,2013-05-21 03:12:00,
2013-05-20 22:13:00,67.9,53.0,29.65,ESE,123,0.0,0.0,59,0.00,CLR,,0.56,WeatherDisplay:10.37,2013-05-21 03:13:00,
2013-05-20 22:14:00,68.0,53.1,29.65,ESE,123,0.0,0.0,59,0.00,CLR,,0.56,WeatherDisplay:10.37,2013-05-21 03:14:00,
2013-05-20 22:16:00,67.9,53.0,29.65,ESE,123,0.0,0.0,59,0.00,CLR,,0.56,WeatherDisplay:10.37,2013-05-21 03:16:00,
2013-05-20 22:17:00,67.8,52.9,29.64,ESE,123,0.0,0.0,59,0.00,CLR,,0.56,WeatherDisplay:10.37,2013-05-21 03:17:00,
2013-05-20 22:19:00,67.9,53.0,29.65,ESE,123,0.0,0.0,59,0.00,CLR,,0.56,WeatherDisplay:10.37,2013-05-21 03:19:00,
2013-05-20 22:21:00,67.9,53.0,29.64,ESE,123,0.0,0.0,59,0.00,CLR,,0.56,WeatherDisplay:10.37,2013-05-21 03:21:00,
2013-05-20 22:22:00,67.9,53.0,29.63,ESE,123,0.0,0.0,59,0.00,CLR,,0.56,WeatherDisplay:10.37,2013-05-21 03:22:00,
2013-05-20 22:24:00,67.8,52.9,29.63,ESE,123,0.0,0.0,59,0.00,CLR,,0.56,WeatherDisplay:10.37,2013-05-21 03:24:00,
2013-05-20 22:27:00,67.6,52.8,29.63,ESE,123,0.0,0.0,59,0.00,CLR,,0.56,WeatherDisplay:10.37,2013-05-21 03:27:00,
2013-05-20 22:29:00,67.7,52.9,29.64,ESE,123,0.0,0.0,59,0.00,CLR,,0.56,WeatherDisplay:10.37,2013-05-21 03:29:00,
2013-05-20 22:30:00,67.6,52.8,29.64,ESE,123,0.0,0.0,59,0.00,CLR,,0.56,WeatherDisplay:10.37,2013-05-21 03:30:00,
2013-05-20 22:32:00,67.6,52.8,29.64,ESE,123,0.0,0.0,59,0.00,CLR,,0.56,WeatherDisplay:10.37,2013-05-21 03:32:00,
2013-05-20 22:33:00,67.4,52.6,29.64,ESE,123,0.0,0.0,59,0.00,CLR,,0.56,WeatherDisplay:10.37,2013-05-21 03:33:00,
2013-05-20 22:34:00,67.5,52.7,29.64,ESE,123,0.0,0.0,59,0.00,CLR,,0.56,WeatherDisplay:10.37,2013-05-21 03:34:00,
2013-05-20 22:35:00,67.4,52.6,29.64,ESE,123,0.0,0.0,59,0.00,CLR,,0.56,WeatherDisplay:10.37,2013-05-21 03:35:00,
2013-05-20 22:37:00,67.4,53.0,29.64,ESE,123,0.0,0.0,60,0.00,CLR,,0.56,WeatherDisplay:10.37,2013-05-21 03:37:00,
2013-05-20 22:38:00,67.4,53.0,29.63,ESE,123,0.0,0.0,60,0.00,CLR,,0.56,WeatherDisplay:10.37,2013-05-21 03:38:00,
2013-05-20 22:39:00,67.4,53.0,29.63,ESE,123,0.0,0.0,60,0.00,CLR,,0.56,WeatherDisplay:10.37,2013-05-21 03:39:00,
2013-05-20 22:40:00,67.4,53.0,29.64,ESE,123,0.0,0.0,60,0.00,CLR,,0.56,WeatherDisplay:10.37,2013-05-21 03:40:00,
2013-05-20 22:42:00,67.3,52.9,29.64,ESE,123,0.0,0.0,60,0.00,CLR,,0.56,WeatherDisplay:10.37,2013-05-21 03:42:00,
2013-05-20 22:43:00,67.3,52.9,29.64,ESE,123,0.0,0.0,60,0.00,CLR,,0.56,WeatherDisplay:10.37,2013-05-21 03:43:00,
2013-05-20 22:44:00,67.4,53.0,29.64,ESE,123,0.0,0.0,60,0.00,CLR,,0.56,WeatherDisplay:10.37,2013-05-21 03:44:00,
2013-05-20 22:45:00,67.2,52.8,29.64,SE,140,0.8,3.9,60,0.00,CLR,,0.56,WeatherDisplay:10.37,2013-05-21 03:45:00,
2013-05-20 22:46:00,67.3,52.9,29.64,SE,127,1.7,3.5,60,0.00,CLR,,0.56,WeatherDisplay:10.37,2013-05-21 03:46:00,
2013-05-20 22:47:00,67.3,53.4,29.64,SE,137,1.4,2.3,61,0.00,CLR,,0.56,WeatherDisplay:10.37,2013-05-21 03:47:00,
2013-05-20 22:48:00,67.3,53.4,29.64,SSE,147,3.2,3.2,61,0.00,CLR,,0.56,WeatherDisplay:10.37,2013-05-21 03:48:00,
2013-05-20 22:49:00,67.3,53.4,29.64,SE,141,2.1,5.8,61,0.00,CLR,,0.56,WeatherDisplay:10.37,2013-05-21 03:49:00,
2013-05-20 22:51:00,67.4,53.5,29.64,SSE,152,2.0,2.5,61,0.00,CLR,,0.56,WeatherDisplay:10.37,2013-05-21 03:51:00,
2013-05-20 22:52:00,67.3,53.4,29.65,SSE,152,2.0,4.6,61,0.00,CLR,,0.56,WeatherDisplay:10.37,2013-05-21 03:52:00,
2013-05-20 22:54:00,67.4,53.5,29.65,SSE,164,1.4,3.5,61,0.00,CLR,,0.56,WeatherDisplay:10.37,2013-05-21 03:54:00,
2013-05-20 22:56:00,67.3,53.4,29.64,SSE,168,2.6,4.6,61,0.00,CLR,,0.56,WeatherDisplay:10.37,2013-05-21 03:56:00,
2013-05-20 22:58:00,67.3,53.4,29.64,East,86,1.8,3.5,61,0.00,CLR,,0.56,WeatherDisplay:10.37,2013-05-21 03:58:00,
2013-05-20 22:59:00,67.2,53.3,29.64,SSE,157,0.5,1.1,61,0.00,CLR,,0.56,WeatherDisplay:10.37,2013-05-21 03:59:00,
2013-05-20 23:00:00,67.3,53.4,29.64,SE,131,3.3,5.8,61,0.00,CLR,,0.56,WeatherDisplay:10.37,2013-05-21 04:00:00,
2013-05-20 23:01:00,67.3,53.4,29.64,ESE,113,3.0,4.6,61,0.00,CLR,,0.56,WeatherDisplay:10.37,2013-05-21 04:01:00,
2013-05-20 23:06:00,67.4,53.5,29.63,SSE,160,2.2,5.2,61,0.00,CLR,,0.56,WeatherDisplay:10.37,2013-05-21 04:06:00,
2013-05-20 23:11:00,67.3,53.4,29.63,SE,137,0.7,2.4,61,0.00,CLR,,0.56,WeatherDisplay:10.37,2013-05-21 04:11:00,
2013-05-20 23:12:00,67.4,53.5,29.63,ESE,112,2.2,3.2,61,0.00,CLR,,0.56,WeatherDisplay:10.37,2013-05-21 04:12:00,
2013-05-20 23:16:00,67.2,52.8,29.62,ESE,117,1.7,2.3,60,0.00,CLR,,0.56,WeatherDisplay:10.37,2013-05-21 04:16:00,
2013-05-20 23:17:00,67.2,52.8,29.62,South,185,2.0,4.6,60,0.00,CLR,,0.56,WeatherDisplay:10.37,2013-05-21 04:17:00,
2013-05-20 23:21:00,67.2,53.3,29.61,South,185,1.2,2.3,61,0.00,CLR,,0.56,WeatherDisplay:10.37,2013-05-21 04:21:00,
2013-05-20 23:22:00,67.2,53.3,29.61,SSW,203,1.4,3.5,61,0.00,CLR,,0.56,WeatherDisplay:10.37,2013-05-21 04:22:00,
2013-05-20 23:26:00,67.1,53.2,29.61,SSE,155,0.0,0.0,61,0.00,CLR,,0.56,WeatherDisplay:10.37,2013-05-21 04:26:00,
2013-05-20 23:27:00,67.2,53.3,29.61,SSE,167,1.5,4.6,61,0.00,CLR,,0.56,WeatherDisplay:10.37,2013-05-21 04:27:00,
2013-05-20 23:28:00,67.1,53.2,29.61,SE,126,0.6,3.5,61,0.00,CLR,,0.56,WeatherDisplay:10.37,2013-05-21 04:28:00,
2013-05-20 23:31:00,67.1,53.2,29.61,NE,47,0.0,0.0,61,0.00,CLR,,0.56,WeatherDisplay:10.37,2013-05-21 04:31:00,
2013-05-20 23:32:00,67.1,53.2,29.61,NE,47,0.0,0.0,61,0.00,CLR,,0.56,WeatherDisplay:10.37,2013-05-21 04:32:00,
2013-05-20 23:33:00,67.0,53.1,29.61,SSE,152,1.0,3.5,61,0.00,CLR,,0.56,WeatherDisplay:10.37,2013-05-21 04:33:00,
2013-05-20 23:37:00,67.1,53.2,29.60,South,189,1.8,4.6,61,0.00,CLR,,0.56,WeatherDisplay:10.37,2013-05-21 04:37:00,
2013-05-20 23:38:00,67.1,53.2,29.60,SSE,152,3.1,4.6,61,0.00,CLR,,0.56,WeatherDisplay:10.37,2013-05-21 04:38:00,
2013-05-20 23:39:00,67.0,52.7,29.60,SSE,167,1.6,4.6,60,0.00,CLR,,0.56,WeatherDisplay:10.37,2013-05-21 04:39:00,
2013-05-20 23:42:00,67.2,52.8,29.60,SSE,158,4.2,5.8,60,0.00,CLR,,0.56,WeatherDisplay:10.37,2013-05-21 04:42:00,
2013-05-20 23:43:00,67.2,52.8,29.60,SSW,198,3.2,5.8,60,0.00,CLR,,0.56,WeatherDisplay:10.37,2013-05-21 04:43:00,
2013-05-20 23:44:00,67.2,52.8,29.60,SSE,150,1.2,6.9,60,0.00,CLR,,0.56,WeatherDisplay:10.37,2013-05-21 04:44:00,
2013-05-20 23:47:00,67.4,52.6,29.59,SE,144,4.3,8.1,59,0.00,CLR,,0.56,WeatherDisplay:10.37,2013-05-21 04:47:00,
2013-05-20 23:48:00,67.3,52.5,29.59,SE,143,6.5,9.2,59,0.00,CLR,,0.56,WeatherDisplay:10.37,2013-05-21 04:48:00,
2013-05-20 23:49:00,67.4,52.6,29.59,SSE,168,3.1,8.1,59,0.00,CLR,,0.56,WeatherDisplay:10.37,2013-05-21 04:49:00,
2013-05-20 23:52:00,67.6,52.3,29.59,SSE,168,2.5,5.8,58,0.00,CLR,,0.56,WeatherDisplay:10.37,2013-05-21 04:52:00,
2013-05-20 23:53:00,67.5,52.2,29.59,SE,143,5.8,9.2,58,0.00,CLR,,0.56,WeatherDisplay:10.37,2013-05-21 04:53:00,
2013-05-20 23:54:00,67.7,52.4,29.59,SSE,157,4.7,8.1,58,0.00,CLR,,0.56,WeatherDisplay:10.37,2013-05-21 04:54:00,
2013-05-20 23:58:00,67.8,52.0,29.59,SSE,150,3.2,5.8,57,0.00,CLR,,0.56,WeatherDisplay:10.37,2013-05-21 04:58:00,
2013-05-20 23:59:00,67.8,52.0,29.59,South,175,2.7,5.8,57,0.00,CLR,,0.56,WeatherDisplay:10.37,2013-05-21 04:59:00,